EW3067 Weather Reports


time (UTC)temp
C
wind
direction
speed
KPH
gust
KPH
rain 1hr
cm
rain 24hr
cm
rain mn
cm
humidity
%
barometer
mb
20260906222400 37 98 6.4 17.7 0.00 0.00 0.00 40 1010.2
20260906222259 37 161 6.4 17.7 0.00 0.00 0.00 40 1010.2
20260906222201 37 168 8.0 17.7 0.00 0.00 0.00 40 1010.2
20260906222059 37 132 9.7 17.7 0.00 0.00 0.00 40 1010.2
20260906221900 37 153 9.7 17.7 0.00 0.00 0.00 41 1010.2
20260906221759 37 146 9.7 17.7 0.00 0.00 0.00 41 1010.2
20260906221606 37 138 6.4 12.9 0.00 0.00 0.00 41 1008.2
20260906221559 37 138 6.4 12.9 0.00 0.00 0.00 41 1010.1
20260906221459 37 146 6.4 12.9 0.00 0.00 0.00 41 1010.2
20260906221359 37 109 6.4 12.9 0.00 0.00 0.00 41 1010.1
20260906221259 37 130 6.4 14.5 0.00 0.00 0.00 41 1010.1
20260906221200 37 127 4.8 14.5 0.00 0.00 0.00 41 1010.1
20260906221100 37 129 6.4 14.5 0.00 0.00 0.00 41 1010.1
20260906221001 37 138 8.0 16.1 0.00 0.00 0.00 41 1010.1
20260906220859 37 152 8.0 16.1 0.00 0.00 0.00 41 1010.2
20260906220800 37 156 6.4 16.1 0.00 0.00 0.00 41 1010.2
20260906220700 37 145 6.4 16.1 0.00 0.00 0.00 41 1010.1
20260906220600 37 140 8.0 16.1 0.00 0.00 0.00 41 1010.1
20260906220400 37 138 8.0 16.1 0.00 0.00 0.00 41 1010.2
20260906220300 37 180 8.0 16.1 0.00 0.00 0.00 41 1010.1
20260906220200 37 159 8.0 16.1 0.00 0.00 0.00 40 1010.2
20260906220059 37 153 8.0 16.1 0.00 0.00 0.00 40 1010.2
20260906215958 37 119 6.4 16.1 0.00 0.00 0.00 40 1010.2
20260906215658 37 121 6.4 14.5 0.00 0.00 0.00 40 1010.2
20260906215559 37 127 3.2 14.5 0.00 0.00 0.00 40 1010.2
20260906215459 37 126 3.2 14.5 0.00 0.00 0.00 40 1010.2
20260906215358 37 147 4.8 14.5 0.00 0.00 0.00 39 1010.2
20260906215259 37 169 6.4 14.5 0.00 0.00 0.00 39 1010.3
20260906215159 37 137 8.0 14.5 0.00 0.00 0.00 39 1010.2
20260906215058 38 140 8.0 14.5 0.00 0.00 0.00 38 1010.3
20260906214958 38 146 9.7 14.5 0.00 0.00 0.00 39 1010.2
20260906214858 38 135 9.7 14.5 0.00 0.00 0.00 39 1010.3
20260906214759 38 130 11.3 16.1 0.00 0.00 0.00 39 1010.2
20260906214659 38 120 8.0 16.1 0.00 0.00 0.00 39 1010.2
20260906214604 38 102 6.4 16.1 0.00 0.00 0.00 39 1008.3
20260906214500 38 121 4.8 16.1 0.00 0.00 0.00 39 1010.2
20260906214359 38 97 3.2 16.1 0.00 0.00 0.00 40 1010.2
20260906214259 38 69 4.8 16.1 0.00 0.00 0.00 39 1010.2
20260906214158 38 136 8.0 16.1 0.00 0.00 0.00 39 1010.2
20260906214058 38 97 9.7 16.1 0.00 0.00 0.00 39 1010.3
20260906213959 38 127 9.7 16.1 0.00 0.00 0.00 40 1010.2
20260906213859 38 109 6.4 16.1 0.00 0.00 0.00 40 1010.3
20260906213758 37 154 4.8 16.1 0.00 0.00 0.00 40 1010.3
20260906213658 37 144 8.0 16.1 0.00 0.00 0.00 39 1010.3
20260906213558 37 127 8.0 19.3 0.00 0.00 0.00 39 1010.3
20260906213458 37 132 9.7 19.3 0.00 0.00 0.00 40 1010.2
20260906213258 37 106 8.0 19.3 0.00 0.00 0.00 40 1010.3
20260906213158 37 109 8.0 19.3 0.00 0.00 0.00 40 1010.4
20260906213059 37 123 8.0 19.3 0.00 0.00 0.00 39 1008.4
20260906212959 37 115 9.7 19.3 0.00 0.00 0.00 39 1010.3
20260906212858 37 144 8.0 19.3 0.00 0.00 0.00 39 1010.4
20260906212759 38 120 6.4 19.3 0.00 0.00 0.00 39 1010.2
20260906212659 38 171 6.4 19.3 0.00 0.00 0.00 39 1010.4
20260906212500 38 136 8.0 19.3 0.00 0.00 0.00 39 1010.4
20260906212358 38 119 4.8 17.7 0.00 0.00 0.00 39 1010.4
20260906212300 38 111 247.8 1054.1 5.89 0.00 0.00 40
20260906212059 38 119 6.4 17.7 0.00 0.00 0.00 39 1010.4
20260906211959 38 119 8.0 17.7 0.00 0.00 0.00 39 1010.4
20260906211859 38 109 8.0 17.7 0.00 0.00 0.00 39 1010.4
20260906211758 38 130 9.7 17.7 0.00 0.00 0.00 39 1010.5
20260906211659 37 88 8.0 24.1 0.00 0.00 0.00 39 1010.5
20260906211558 38 134 8.0 24.1 0.00 0.00 0.00 39 1010.5
20260906211458 38 144 8.0 24.1 0.00 0.00 0.00 38 1010.5
20260906211359 38 174 9.7 24.1 0.00 0.00 0.00 39 1010.6
20260906211258 38 138 6.4 24.1 0.00 0.00 0.00 39 1010.5
20260906211200 38 156 3.2 24.1 0.00 0.00 0.00 39 1010.5
20260906211059 38 168 9.7 24.1 0.00 0.00 0.00 38 1010.5
20260906210959 38 117 9.7 24.1 0.00 0.00 0.00 38 1010.6
20260906210601 38 121 12.9 22.5 0.00 0.00 0.00 39 1010.7
20260906210458 38 113 12.9 22.5 0.00 0.00 0.00 38 1010.6
20260906210359 38 111 8.0 22.5 0.00 0.00 0.00 38 1010.7
20260906210200 38 192 3.2 12.9 0.00 0.00 0.00 38 1010.6
20260906210106 38 208 4.8 19.3 0.00 0.00 0.00 38 1008.8
20260906205959 38 196 6.4 19.3 0.00 0.00 0.00 39 1010.7
20260906205800 37 200 6.4 19.3 0.00 0.00 0.00 39 1010.7
20260906205700 37 125 6.4 19.3 0.00 0.00 0.00 38 1010.7
20260906205600 37 112 8.0 19.3 0.00 0.00 0.00 38 1010.8
20260906205459 38 121 9.7 19.3 0.00 0.00 0.00 38 1010.9
20260906205359 38 130 11.3 19.3 0.00 0.00 0.00 38 1010.9
20260906205258 37 133 11.3 19.3 0.00 0.00 0.00 39 1010.9
20260906205059 37 134 4.8 19.3 0.00 0.00 0.00 39 1010.9
20260906205000 37 150 4.8 17.7 0.00 0.00 0.00 40 1010.9
20260906204859 37 101 6.4 17.7 0.00 0.00 0.00 39 1010.9
20260906204658 37 128 6.4 17.7 0.00 0.00 0.00 40 1011.0
20260906204602 37 86 6.4 17.7 0.00 0.00 0.00 40 1009.0
20260906204500 37 117 8.0 17.7 0.00 0.00 0.00 40 1011.0
20260906204358 37 138 6.4 17.7 0.00 0.00 0.00 40 1011.0
20260906204258 37 151 4.8 12.9 0.00 0.00 0.00 40 1011.0
20260906204159 37 141 4.8 11.3 0.00 0.00 0.00 40 1011.0
20260906204059 37 148 4.8 11.3 0.00 0.00 0.00 40 1011.1
20260906203958 37 104 4.8 11.3 0.00 0.00 0.00 39 1011.1
20260906203859 37 116 3.2 11.3 0.00 0.00 0.00 39 1011.1
20260906203758 37 126 4.8 11.3 0.00 0.00 0.00 39 1011.1
20260906203659 37 123 3.2 12.9 0.00 0.00 0.00 39 1011.1
20260906203601 37 111 3.2 12.9 0.00 0.00 0.00 39 1011.1
20260906203458 37 80 4.8 16.1 0.00 0.00 0.00 39 1011.1
20260906203400 37 105 4.8 16.1 0.00 0.00 0.00 39 1011.1
20260906203059 37 107 3.2 20.9 0.00 0.00 0.00 40 1011.2
20260906202959 37 46 6.4 20.9 0.00 0.00 0.00 39 1011.2
20260906202858 37 96 8.0 20.9 0.00 0.00 0.00 39 1011.2
20260906202758 37 97 11.3 20.9 0.00 0.00 0.00 39 1011.3
20260906202659 37 120 11.3 20.9 0.00 0.00 0.00 40 1011.2
20260906202559 37 139 11.3 20.9 0.00 0.00 0.00 40 1011.2
20260906202459 37 134 12.9 20.9 0.00 0.00 0.00 40 1011.3
20260906202358 37 126 12.9 20.9 0.00 0.00 0.00 40 1011.3
20260906202258 37 154 9.7 19.3 0.00 0.00 0.00 40 1011.3
20260906202058 37 109 1.6 14.5 0.00 0.00 0.00 41 1011.3
20260906201858 37 83 1.6 17.7 0.00 0.00 0.00 40 1011.3
20260906201759 37 84 3.2 19.3 0.00 0.00 0.00 40 1011.3
20260906201658 37 165 4.8 19.3 0.00 0.00 0.00 40 1011.3
20260906201559 37 167 6.4 19.3 0.00 0.00 0.00 38 1009.4
20260906201458 37 151 8.0 19.3 0.00 0.00 0.00 38 1011.3
20260906201400 37 144 11.3 19.3 0.00 0.00 0.00 38 1011.3
20260906201259 37 113 12.9 19.3 0.00 0.00 0.00 38 1011.4
20260906201158 38 115 12.9 19.3 0.00 0.00 0.00 38 1011.3
20260906200859 38 135 8.0 17.7 0.00 0.00 0.00 38 1011.4
20260906200658 38 99 6.4 17.7 0.00 0.00 0.00 38 1011.4
20260906200558 38 98 8.0 17.7 0.00 0.00 0.00 38 1011.4
20260906200359 38 99 9.7 17.7 0.00 0.00 0.00 38 1011.4
20260906200259 38 89 9.7 17.7 0.00 0.00 0.00 38 1011.5
20260906200158 38 117 8.0 17.7 0.00 0.00 0.00 38 1011.4
20260906200058 38 123 9.7 17.7 0.00 0.00 0.00 39 1011.4
20260906195959 38 111 8.0 17.7 0.00 0.00 0.00 39 1011.4
20260906195858 38 118 6.4 14.5 0.00 0.00 0.00 40 1011.4
20260906195658 38 65 6.4 16.1 0.00 0.00 0.00 39 1011.4
20260906195559 38 55 4.8 16.1 0.00 0.00 0.00 40 1011.4
20260906195458 38 64 4.8 16.1 0.00 0.00 0.00 40 1011.5
20260906195358 38 39 6.4 16.1 0.00 0.00 0.00 39 1011.5
20260906195300 38 61 6.4 16.1 0.00 0.00 0.00 39 1011.5
20260906195158 38 69 8.0 16.1 0.00 0.00 0.00 39 1011.5
20260906195058 38 41 8.0 16.1 0.00 0.00 0.00 38 1011.6
20260906194859 38 71 6.4 14.5 0.00 0.00 0.00 40 1011.6
20260906194759 38 79 6.4 14.5 0.00 0.00 0.00 41 1011.6
20260906194659 37 103 6.4 20.9 0.00 0.00 0.00 40 1011.6
20260906194606 37 67 4.8 22.5 0.00 0.00 0.00 40 1009.7
20260906194559 37 67 4.8 22.5 0.00 0.00 0.00 40 1011.6
20260906194458 37 113 3.2 22.5 0.00 0.00 0.00 41 1011.6
20260906194359 37 105 3.2 22.5 0.00 0.00 0.00 39 1011.6
20260906194258 37 105 1.6 22.5 0.00 0.00 0.00 39 1011.7
20260906194159 37 72 4.8 22.5 0.00 0.00 0.00 40 1011.7
20260906194058 38 119 8.0 22.5 0.00 0.00 0.00 39 1011.7
20260906193959 38 118 14.5 22.5 0.00 0.00 0.00 40 1011.7
20260906193758 38 116 12.9 22.5 0.00 0.00 0.00 39 1011.7
20260906193557 38 142 9.7 20.9 0.00 0.00 0.00 40 1011.9
20260906193458 38 128 6.4 20.9 0.00 0.00 0.00 40 1011.8
20260906193358 38 74 4.8 19.3 0.00 0.00 0.00 39 1011.8
20260906193258 38 111 3.2 22.5 0.00 0.00 0.00 39 1011.8
20260906193158 38 118 6.4 22.5 0.00 0.00 0.00 39 1011.9
20260906193059 38 118 8.0 22.5 0.00 0.00 0.00 39 1010.0
20260906192959 38 125 8.0 22.5 0.00 0.00 0.00 39 1011.9
20260906192858 38 71 6.4 22.5 0.00 0.00 0.00 39 1011.9
20260906192758 38 57 6.4 24.1 0.00 0.00 0.00 39 1012.0
20260906192659 38 86 8.0 24.1 0.00 0.00 0.00 39 1011.9
20260906192458 38 140 12.9 24.1 0.00 0.00 0.00 38 1011.9
20260906192359 38 126 14.5 24.1 0.00 0.00 0.00 38 1011.9
20260906192300 38 117 9.7 24.1 0.00 0.00 0.00 38 1011.9
20260906192000 38 111 12.9 24.1 0.00 0.00 0.00 39 1011.9
20260906191858 38 100 12.9 22.5 0.00 0.00 0.00 39 1011.9
20260906191759 38 169 12.9 22.5 0.00 0.00 0.00 40 1012.0
20260906191657 38 151 12.9 22.5 0.00 0.00 0.00 40 1012.0
20260906191604 38 123 12.9 24.1 0.00 0.00 0.00 40 1010.2
20260906191559 38 123 14.5 24.1 0.00 0.00 0.00 40 1012.1
20260906191459 38 169 12.9 24.1 0.00 0.00 0.00 39 1012.1
20260906191358 38 126 14.5 24.1 0.00 0.00 0.00 40 1012.2
20260906191159 37 128 14.5 24.1 0.00 0.00 0.00 40 1012.3
20260906191058 37 134 11.3 24.1 0.00 0.00 0.00 41 1012.1
20260906190958 37 144 11.3 24.1 0.00 0.00 0.00 41 1012.1
20260906190858 37 126 11.3 24.1 0.00 0.00 0.00 42 1012.1
20260906190758 37 139 11.3 24.1 0.00 0.00 0.00 41 1012.2
20260906190700 37 107 8.0 24.1 0.00 0.00 0.00 42 1012.1
20260906190558 37 153 8.0 17.7 0.00 0.00 0.00 42 1012.1
20260906190357 37 122 8.0 17.7 0.00 0.00 0.00 40 1012.1
20260906190259 37 108 8.0 17.7 0.00 0.00 0.00 40 1012.1
20260906190158 37 122 8.0 17.7 0.00 0.00 0.00 40 1012.1
20260906190059 37 107 6.4 17.7 0.00 0.00 0.00 40 1012.1
20260906185959 37 86 3.2 17.7 0.00 0.00 0.00 40 1012.1
20260906185858 37 167 3.2 17.7 0.00 0.00 0.00 41 1012.2
20260906185759 37 164 6.4 17.7 0.00 0.00 0.00 41 1012.3
20260906185659 37 140 11.3 17.7 0.00 0.00 0.00 41 1012.3
20260906185559 37 82 11.3 17.7 0.00 0.00 0.00 41 1012.3
20260906185458 37 120 6.4 17.7 0.00 0.00 0.00 41 1012.2
20260906185259 37 99 1.6 17.7 0.00 0.00 0.00 41 1012.1
20260906185158 37 158 1.6 17.7 0.00 0.00 0.00 41 1012.1
20260906185058 37 112 3.2 20.9 0.00 0.00 0.00 41 1012.2
20260906184958 37 104 4.8 20.9 0.00 0.00 0.00 41 1012.2
20260906184758 37 104 6.4 20.9 0.00 0.00 0.00 41 1012.3
20260906184700 37 94 9.7 20.9 0.00 0.00 0.00 41 1012.3
20260906184600 37 85 8.0 20.9 0.00 0.00 0.00 42 1010.4
20260906184558 37 85 9.7 20.9 0.00 0.00 0.00 42 1012.3
20260906184358 37 84 12.9 20.9 0.00 0.00 0.00 42 1012.3
20260906184158 37 101 9.7 20.9 0.00 0.00 0.00 42 1012.4
20260906184058 37 119 4.8 12.9 0.00 0.00 0.00 42 1012.4
20260906183958 37 92 3.2 12.9 0.00 0.00 0.00 41 1012.4
20260906183858 37 116 4.8 12.9 0.00 0.00 0.00 41 1012.4
20260906183758 37 112 6.4 19.3 0.00 0.00 0.00 41 1012.4
20260906183600 37 140 3.2 19.3 0.00 0.00 0.00 41 1012.3
20260906183457 37 91 4.8 19.3 0.00 0.00 0.00 41 1012.4
20260906183359 38 115 4.8 19.3 0.00 0.00 0.00 40 1012.4
20260906183158 38 123 9.7 19.3 0.00 0.00 0.00 40 1012.5
20260906183109 38 146 11.3 19.3 0.00 0.00 0.00 40 1010.6
20260906183059 38 146 11.3 19.3 0.00 0.00 0.00 40 1012.5
20260906182958 38 90 11.3 19.3 0.00 0.00 0.00 41 1012.5
20260906182659 38 113 8.0 19.3 0.00 0.00 0.00 40 1012.5
20260906182558 38 90 6.4 19.3 0.00 0.00 0.00 41 1012.6
20260906182459 38 82 9.7 19.3 0.00 0.00 0.00 41 1012.6
20260906182259 37 103 11.3 19.3 0.00 0.00 0.00 41 1012.7
20260906182159 37 117 11.3 24.1 0.00 0.00 0.00 41 1012.7
20260906182100 37 142 8.0 24.1 0.00 0.00 0.00 43 1012.7
20260906181959 37 104 6.4 24.1 0.00 0.00 0.00 43 1012.7
20260906181859 37 66 4.8 24.1 0.00 0.00 0.00 43 1012.8
20260906181759 37 89 4.8 24.1 0.00 0.00 0.00 43 1012.8
20260906181659 37 73 6.4 24.1 0.00 0.00 0.00 43 1012.8
20260906181603 37 84 8.0 24.1 0.00 0.00 0.00 43 1010.9
20260906181559 37 84 9.7 24.1 0.00 0.00 0.00 43 1012.9
20260906181500 37 99 11.3 24.1 0.00 0.00 0.00 43 1012.9
20260906181359 37 111 11.3 24.1 0.00 0.00 0.00 44 1012.9
20260906181059 37 113 12.9 22.5 0.00 0.00 0.00 43 1012.9
20260906180958 37 144 11.3 22.5 0.00 0.00 0.00 42 1013.0
20260906180858 37 145 11.3 22.5 0.00 0.00 0.00 43 1012.9
20260906180758 37 119 11.3 20.9 0.00 0.00 0.00 43 1013.0
20260906180658 37 134 9.7 20.9 0.00 0.00 0.00 43 1013.0
20260906180459 37 148 4.8 20.9 0.00 0.00 0.00 42 1013.0
20260906180359 37 147 6.4 20.9 0.00 0.00 0.00 42 1013.0
20260906180258 37 159 11.3 20.9 0.00 0.00 0.00 42 1013.1
20260906180159 37 137 11.3 20.9 0.00 0.00 0.00 44 1013.2
20260906180120 36 144 8.0 20.9 0.00 0.00 0.00 44 1011.1
20260906175958 36 130 8.0 20.9 0.00 0.00 0.00 44 1013.0
20260906175858 36 130 6.4 20.9 0.00 0.00 0.00 44 1013.1
20260906175757 36 169 4.8 20.9 0.00 0.00 0.00 44 1013.1
20260906175657 36 124 8.0 20.9 0.00 0.00 0.00 45 1013.1
20260906175557 36 110 12.9 20.9 0.00 0.00 0.00 45 1013.1
20260906175457 36 136 14.5 20.9 0.00 0.00 0.00 44 1013.1
20260906175357 36 128 11.3 20.9 0.00 0.00 0.00 44 1013.2
20260906175157 36 155 4.8 20.9 0.00 0.00 0.00 45 1013.2
20260906175057 36 117 4.8 20.9 0.00 0.00 0.00 45 1013.2
20260906174958 36 114 6.4 20.9 0.00 0.00 0.00 44 1013.3
20260906174858 36 105 8.0 20.9 0.00 0.00 0.00 44 1013.3
20260906174757 36 113 8.0 20.9 0.00 0.00 0.00 45 1013.3
20260906174657 36 104 6.4 19.3 0.00 0.00 0.00 44 1013.3
20260906174619 36 107 8.0 19.3 0.00 0.00 0.00 43 1011.3
20260906174357 37 124 12.9 20.9 0.00 0.00 0.00 43 1013.2
20260906174258 37 142 9.7 20.9 0.00 0.00 0.00 44 1013.3
20260906174157 37 148 8.0 20.9 0.00 0.00 0.00 44 1013.2
20260906174057 37 74 6.4 20.9 0.00 0.00 0.00 45 1013.3
20260906173858 37 99 8.0 20.9 0.00 0.00 0.00 43 1013.3
20260906173757 37 119 11.3 20.9 0.00 0.00 0.00 43 1013.3
20260906173658 37 130 12.9 20.9 0.00 0.00 0.00 42 1013.3
20260906173558 37 118 9.7 20.9 0.00 0.00 0.00 43 1013.3
20260906173457 37 99 6.4 17.7 0.00 0.00 0.00 43 1013.3
20260906173357 37 117 6.4 17.7 0.00 0.00 0.00 43 1013.3
20260906173158 37 117 4.8 17.7 0.00 0.00 0.00 43 1013.3
20260906173058 37 121 6.4 17.7 0.00 0.00 0.00 43 1013.4
20260906172758 37 98 8.0 17.7 0.00 0.00 0.00 44 1013.4
20260906172658 37 98 11.3 17.7 0.00 0.00 0.00 43 1013.4
20260906172557 37 93 9.7 17.7 0.00 0.00 0.00 43 1013.4
20260906172357 36 116 4.8 17.7 0.00 0.00 0.00 44 1013.4
20260906172257 36 107 6.4 17.7 0.00 0.00 0.00 45 1013.4
20260906172157 36 82 6.4 17.7 0.00 0.00 0.00 46 1013.5
20260906172057 36 94 8.0 17.7 0.00 0.00 0.00 46 1013.5
20260906171858 36 98 8.0 17.7 0.00 0.00 0.00 45 1013.4
20260906171757 36 113 8.0 17.7 0.00 0.00 0.00 45 1013.4
20260906171657 36 140 8.0 17.7 0.00 0.00 0.00 45 1013.4
20260906171612 36 138 9.7 17.7 0.00 0.00 0.00 45 1011.5
20260906171557 36 138 9.7 17.7 0.00 0.00 0.00 45 1013.5
20260906171457 36 171 9.7 17.7 0.00 0.00 0.00 45 1013.5
20260906171358 36 180 11.3 17.7 0.00 0.00 0.00 45 1013.4
20260906171257 36 121 11.3 17.7 0.00 0.00 0.00 45 1013.5
20260906171157 36 116 9.7 17.7 0.00 0.00 0.00 45 1013.4
20260906171057 36 113 6.4 17.7 0.00 0.00 0.00 45 1013.5
20260906170858 36 117 8.0 17.7 0.00 0.00 0.00 44 1013.5
20260906170757 36 132 9.7 17.7 0.00 0.00 0.00 44 1013.6
20260906170657 36 111 9.7 17.7 0.00 0.00 0.00 44 1013.6
20260906170557 37 158 8.0 16.1 0.00 0.00 0.00 44 1013.6
20260906170357 37 118 4.8 14.5 0.00 0.00 0.00 43 1013.6
20260906170258 37 153 4.8 14.5 0.00 0.00 0.00 43 1013.6
20260906170158 37 59 3.2 14.5 0.00 0.00 0.00 43 1013.6
20260906170103 37 94 3.2 14.5 0.00 0.00 0.00 44 1011.7
20260906170058 37 94 3.2 14.5 0.00 0.00 0.00 44 1013.6
20260906170002 37 89 4.8 14.5 0.00 0.00 0.00 44 1013.6
20260906165858 37 94 6.4 14.5 0.00 0.00 0.00 45 1013.7
20260906165757 36 73 6.4 19.3 0.00 0.00 0.00 45 1013.6
20260906165658 36 105 4.8 19.3 0.00 0.00 0.00 45 1013.6
20260906165558 36 98 4.8 19.3 0.00 0.00 0.00 44 1013.7
20260906165458 36 63 4.8 19.3 0.00 0.00 0.00 44 1013.6
20260906165357 36 121 4.8 19.3 0.00 0.00 0.00 44 1013.6
20260906165257 36 105 6.4 19.3 0.00 0.00 0.00 45 1013.7
20260906165057 36 81 6.4 19.3 0.00 0.00 0.00 45 1013.7
20260906164957 36 81 8.0 19.3 0.00 0.00 0.00 45 1013.6
20260906164857 36 118 8.0 19.3 0.00 0.00 0.00 45 1013.7
20260906164758 36 111 11.3 19.3 0.00 0.00 0.00 45 1013.7
20260906164658 36 119 11.3 19.3 0.00 0.00 0.00 45 1013.7
20260906164557 36 131 8.0 16.1 0.00 0.00 0.00 44 1011.7
20260906164358 36 97 8.0 16.1 0.00 0.00 0.00 45 1013.7
20260906164257 36 99 6.4 17.7 0.00 0.00 0.00 45 1013.6
20260906164158 36 123 6.4 17.7 0.00 0.00 0.00 44 1013.7
20260906164058 36 122 6.4 17.7 0.00 0.00 0.00 44 1013.7
20260906163858 36 113 6.4 20.9 0.00 0.00 0.00 44 1013.8
20260906163758 36 97 6.4 20.9 0.00 0.00 0.00 44 1013.8
20260906163658 36 113 8.0 20.9 0.00 0.00 0.00 45 1013.8
20260906163457 36 98 6.4 20.9 0.00 0.00 0.00 45 1013.7
20260906163256 36 84 11.3 20.9 0.00 0.00 0.00 45 1013.6
20260906163159 36 67 11.3 20.9 0.00 0.00 0.00 44 1013.7
20260906163059 36 115 8.0 14.5 0.00 0.00 0.00 44 1011.8
20260906162957 36 117 6.4 14.5 0.00 0.00 0.00 45 1013.7
20260906162857 36 142 6.4 12.9 0.00 0.00 0.00 45 1013.7
20260906162758 36 109 4.8 12.9 0.00 0.00 0.00 45 1013.7
20260906162658 36 100 3.2 12.9 0.00 0.00 0.00 45 1013.7
20260906162558 36 82 3.2 17.7 0.00 0.00 0.00 45 1013.7
20260906162458 36 112 3.2 17.7 0.00 0.00 0.00 46 1013.7
20260906162358 36 101 4.8 17.7 0.00 0.00 0.00 46 1013.7
20260906162258 36 103 8.0 17.7 0.00 0.00 0.00 46 1013.7
20260906162159 36 106 8.0 17.7 0.00 0.00 0.00 46 1013.7
20260906162058 36 103 6.4 17.7 0.00 0.00 0.00 46 1013.7
20260906161958 36 103 8.0 17.7 0.00 0.00 0.00 47 1013.7
20260906161857 35 96 8.0 16.1 0.00 0.00 0.00 47 1013.6
20260906161758 35 148 6.4 16.1 0.00 0.00 0.00 47 1013.6
20260906161657 35 129 4.8 14.5 0.00 0.00 0.00 48 1013.6
20260906161621 35 96 1.6 14.5 0.00 0.00 0.00 48 1011.7
20260906161558 35 96 3.2 14.5 0.00 0.00 0.00 48 1013.6
20260906161457 35 100 3.2 14.5 0.00 0.00 0.00 48 1013.6
20260906161358 35 115 3.2 11.3 0.00 0.00 0.00 47 1013.7
20260906161157 35 74 3.2 11.3 0.00 0.00 0.00 48 1013.6
20260906160958 35 89 3.2 11.3 0.00 0.00 0.00 48 1013.6
20260906160858 35 80 4.8 11.3 0.00 0.00 0.00 47 1013.6
20260906160758 35 53 4.8 11.3 0.00 0.00 0.00 47 1013.7
20260906160658 35 104 3.2 11.3 0.00 0.00 0.00 47 1013.7
20260906160558 35 96 3.2 9.7 0.00 0.00 0.00 47 1013.7
20260906160458 35 66 3.2 9.7 0.00 0.00 0.00 48 1013.6
20260906160358 35 103 3.2 9.7 0.00 0.00 0.00 48 1013.6
20260906160258 35 96 3.2 11.3 0.00 0.00 0.00 49 1013.6
20260906160057 35 124 1.6 14.5 0.00 0.00 0.00 49 1011.7
20260906155958 35 111 3.2 14.5 0.00 0.00 0.00 49 1013.6
20260906155857 35 104 4.8 14.5 0.00 0.00 0.00 48 1013.6
20260906155757 35 136 4.8 14.5 0.00 0.00 0.00 48 1013.6
20260906155657 35 136 6.4 14.5 0.00 0.00 0.00 48 1013.6
20260906155558 35 168 8.0 14.5 0.00 0.00 0.00 48 1013.6
20260906155457 35 154 8.0 14.5 0.00 0.00 0.00 48 1013.6
20260906155357 35 118 8.0 14.5 0.00 0.00 0.00 48 1013.6
20260906155258 35 109 6.4 14.5 0.00 0.00 0.00 48 1013.6
20260906155158 35 135 4.8 14.5 0.00 0.00 0.00 48 1013.5
20260906155057 35 111 3.2 14.5 0.00 0.00 0.00 49 1013.6
20260906154959 34 94 1.6 14.5 0.00 0.00 0.00 50 1013.5
20260906154857 34 108 3.2 14.5 0.00 0.00 0.00 49 1013.5
20260906154758 34 92 3.2 14.5 0.00 0.00 0.00 49 1013.5
20260906154559 34 172 4.8 14.5 0.00 0.00 0.00 49 1011.7
20260906154557 34 172 4.8 14.5 0.00 0.00 0.00 49 1013.5
20260906154458 34 115 3.2 14.5 0.00 0.00 0.00 49 1013.6
20260906154158 34 42 3.2 14.5 0.00 0.00 0.00 50 1013.5
20260906154057 34 110 4.8 11.3 0.00 0.00 0.00 50 1013.4
20260906153858 34 46 4.8 11.3 0.00 0.00 0.00 49 1013.5
20260906153658 34 26 3.2 12.9 0.00 0.00 0.00 49 1013.5
20260906153558 34 114 4.8 12.9 0.00 0.00 0.00 49 1013.5
20260906153458 34 105 4.8 12.9 0.00 0.00 0.00 49 1013.4
20260906153358 34 128 4.8 9.7 0.00 0.00 0.00 50 1013.5
20260906153258 34 111 3.2 9.7 0.00 0.00 0.00 49 1013.4
20260906153111 34 70 3.2 6.4 0.00 0.00 0.00 50 1011.5
20260906153058 34 70 3.2 6.4 0.00 0.00 0.00 50 1013.4
20260906152858 33 75 1.6 9.7 0.00 0.00 0.00 51 1013.5
20260906152658 33 96 1.6 9.7 0.00 0.00 0.00 53 1013.4
20260906152559 33 98 1.6 9.7 0.00 0.00 0.00 53 1013.4
20260906152459 33 127 1.6 9.7 0.00 0.00 0.00 52 1013.5
20260906152358 33 120 3.2 9.7 0.00 0.00 0.00 52 1013.5
20260906152258 33 96 3.2 9.7 0.00 0.00 0.00 52 1013.5
20260906152158 33 96 3.2 9.7 0.00 0.00 0.00 54 1013.5
20260906152058 33 86 3.2 9.7 0.00 0.00 0.00 53 1013.5
20260906151958 33 131 3.2 9.7 0.00 0.00 0.00 53 1013.5
20260906151758 33 140 4.8 9.7 0.00 0.00 0.00 53 1013.5
20260906151658 33 153 3.2 9.7 0.00 0.00 0.00 54 1013.5
20260906151558 33 105 1.6 11.3 0.00 0.00 0.00 54 1013.5
20260906151458 33 72 1.6 11.3 0.00 0.00 0.00 54 1013.6
20260906151358 33 101 1.6 11.3 0.00 0.00 0.00 54 1013.5
20260906151258 33 130 3.2 11.3 0.00 0.00 0.00 54 1013.6
20260906151158 32 117 3.2 11.3 0.00 0.00 0.00 54 1013.5
20260906151058 32 138 1.6 11.3 0.00 0.00 0.00 56 1013.5
20260906150958 32 95 3.2 11.3 0.00 0.00 0.00 56 1013.5
20260906150859 32 80 3.2 11.3 0.00 0.00 0.00 56 1013.5
20260906150757 32 103 3.2 11.3 0.00 0.00 0.00 56 1013.5
20260906150658 32 87 3.2 8.0 0.00 0.00 0.00 57 1013.6
20260906150558 32 99 3.2 8.0 0.00 0.00 0.00 57 1013.5
20260906150458 32 92 4.8 8.0 0.00 0.00 0.00 57 1013.5
20260906150357 32 28 4.8 8.0 0.00 0.00 0.00 57 1013.5
20260906150259 32 28 3.2 8.0 0.00 0.00 0.00 57 1013.5
20260906150107 31 67 0.0 6.4 0.00 0.00 0.00 59 1011.6
20260906145958 31 5 0.0 6.4 0.00 0.00 0.00 58 1013.5
20260906145857 31 5 1.6 6.4 0.00 0.00 0.00 59 1013.5
20260906145758 31 20 1.6 6.4 0.00 0.00 0.00 59 1013.5
20260906145658 31 20 3.2 6.4 0.00 0.00 0.00 60 1013.5
20260906145557 31 19 1.6 6.4 0.00 0.00 0.00 60 1013.6
20260906145457 31 300 0.0 6.4 0.00 0.00 0.00 60 1013.6
20260906145257 31 302 0.0 6.4 0.00 0.00 0.00 59 1013.6
20260906145159 31 304 1.6 6.4 0.00 0.00 0.00 59 1013.6
20260906145058 31 22 1.6 6.4 0.00 0.00 0.00 59 1013.6
20260906144958 31 22 1.6 6.4 0.00 0.00 0.00 59 1013.5
20260906144857 31 32 1.6 6.4 0.00 0.00 0.00 60 1013.5
20260906144758 31 22 1.6 4.8 0.00 0.00 0.00 60 1013.6
20260906144659 31 22 1.6 4.8 0.00 0.00 0.00 60 1013.6
20260906144558 31 23 1.6 4.8 0.00 0.00 0.00 62 1013.5
20260906144458 31 17 1.6 4.8 0.00 0.00 0.00 62 1013.6
20260906144358 31 21 3.2 4.8 0.00 0.00 0.00 62 1013.5
20260906144258 31 23 3.2 4.8 0.00 0.00 0.00 62 1013.5
20260906144058 31 39 1.6 4.8 0.00 0.00 0.00 62 1013.6
20260906143958 31 336 0.0 3.2 0.00 0.00 0.00 62 1013.5
20260906143858 31 360 0.0 3.2 0.00 0.00 0.00 63 1013.6
20260906143757 31 360 0.0 3.2 0.00 0.00 0.00 63 1013.6
20260906143558 31 355 0.0 3.2 0.00 0.00 0.00 64 1013.6
20260906143458 30 78 0.0 3.2 0.00 0.00 0.00 66 1013.6
20260906143358 30 82 0.0 3.2 0.00 0.00 0.00 66 1013.6
20260906143258 30 82 0.0 3.2 0.00 0.00 0.00 65 1013.6
20260906143158 30 82 0.0 3.2 0.00 0.00 0.00 65 1013.6
20260906143058 30 82 0.0 3.2 0.00 0.00 0.00 65 1013.5
20260906142858 30 82 0.0 1.6 0.00 0.00 0.00 66 1013.5
20260906142758 30 82 0.0 1.6 0.00 0.00 0.00 66 1013.6
20260906142558 30 82 0.0 3.2 0.00 0.00 0.00 67 1013.6
20260906142458 30 82 0.0 3.2 0.00 0.00 0.00 69 1013.6
20260906142258 30 82 0.0 3.2 0.00 0.00 0.00 69 1013.6
20260906142157 30 82 0.0 3.2 0.00 0.00 0.00 69 1013.6
20260906142058 30 82 1.6 3.2 0.00 0.00 0.00 68 1013.6
20260906141957 30 82 1.6 3.2 0.00 0.00 0.00 69 1013.6
20260906141858 30 81 1.6 3.2 0.00 0.00 0.00 69 1013.6
20260906141758 29 81 1.6 3.2 0.00 0.00 0.00 69 1013.6
20260906141659 29 74 0.0 3.2 0.00 0.00 0.00 70 1013.6
20260906141619 29 74 0.0 3.2 0.00 0.00 0.00 70 1011.8
20260906141558 29 74 0.0 3.2 0.00 0.00 0.00 70 1013.6
20260906141458 29 74 0.0 3.2 0.00 0.00 0.00 72 1013.6
20260906141358 29 74 1.6 3.2 0.00 0.00 0.00 72 1013.7
20260906141257 29 74 1.6 3.2 0.00 0.00 0.00 72 1013.6
20260906141158 29 76 1.6 3.2 0.00 0.00 0.00 72 1013.6
20260906141058 28 76 0.0 3.2 0.00 0.00 0.00 72 1013.6
20260906140958 28 76 1.6 3.2 0.00 0.00 0.00 72 1013.6
20260906140858 28 76 1.6 3.2 0.00 0.00 0.00 73 1013.6
20260906140757 28 86 1.6 3.2 0.00 0.00 0.00 74 1013.6
20260906140558 28 90 0.0 3.2 0.00 0.00 0.00 76 1013.6
20260906140458 28 90 0.0 3.2 0.00 0.00 0.00 76 1013.6
20260906140358 28 91 0.0 3.2 0.00 0.00 0.00 77 1013.6
20260906140258 27 91 0.0 3.2 0.00 0.00 0.00 77 1013.6
20260906140157 27 91 0.0 3.2 0.00 0.00 0.00 77 1013.6
20260906140058 27 91 0.0 3.2 0.00 0.00 0.00 78 1011.8
20260906135959 27 91 1.6 3.2 0.00 0.00 0.00 78 1013.6
20260906135757 27 90 1.6 3.2 0.00 0.00 0.00 78 1013.6
20260906135658 27 91 1.6 3.2 0.00 0.00 0.00 78 1013.6
20260906135558 27 91 1.6 3.2 0.00 0.00 0.00 79 1013.6
20260906135456 27 92 0.0 3.2 0.00 0.00 0.00 80 1013.7
20260906135357 27 150 0.0 3.2 0.00 0.00 0.00 81 1013.7
20260906135258 27 156 0.0 3.2 0.00 0.00 0.00 81 1013.7
20260906135158 27 156 0.0 3.2 0.00 0.00 0.00 82 1013.7
20260906135058 27 156 0.0 3.2 0.00 0.00 0.00 82 1013.7
20260906134958 26 156 0.0 3.2 0.00 0.00 0.00 82 1013.7
20260906134858 26 157 0.0 3.2 0.00 0.00 0.00 82 1013.8
20260906134757 26 157 0.0 3.2 0.00 0.00 0.00 82 1013.7
20260906134659 26 157 0.0 3.2 0.00 0.00 0.00 82 1013.7
20260906134556 26 159 0.0 3.2 0.00 0.00 0.00 82 1011.8
20260906134457 26 160 1.6 3.2 0.00 0.00 0.00 82 1013.7
20260906134357 26 161 1.6 3.2 0.00 0.00 0.00 83 1013.7
20260906134257 26 161 1.6 3.2 0.00 0.00 0.00 84 1013.7
20260906134057 26 162 0.0 3.2 0.00 0.00 0.00 84 1013.7
20260906133957 26 175 0.0 0.0 0.00 0.00 0.00 85 1013.8
20260906133757 26 176 0.0 0.0 0.00 0.00 0.00 85 1013.7
20260906133658 26 176 0.0 0.0 0.00 0.00 0.00 85 1013.7
20260906133558 25 176 0.0 0.0 0.00 0.00 0.00 85 1013.8
20260906133457 25 177 0.0 0.0 0.00 0.00 0.00 86 1013.7
20260906133358 25 177 0.0 0.0 0.00 0.00 0.00 86 1013.7
20260906133257 25 178 0.0 0.0 0.00 0.00 0.00 87 1013.7
20260906133158 25 179 0.0 0.0 0.00 0.00 0.00 87 1013.6
20260906133106 25 179 0.0 0.0 0.00 0.00 0.00 87 1011.8
20260906133057 25 179 0.0 0.0 0.00 0.00 0.00 87 1013.7
20260906132957 25 179 0.0 0.0 0.00 0.00 0.00 88 1013.7
20260906132757 25 179 0.0 0.0 0.00 0.00 0.00 88 1013.7
20260906132657 25 179 0.0 0.0 0.00 0.00 0.00 88 1013.6
20260906132558 25 179 0.0 0.0 0.00 0.00 0.00 88 1013.6
20260906132457 25 179 0.0 1.6 0.00 0.00 0.00 89 1013.6
20260906132358 25 179 0.0 3.2 0.00 0.00 0.00 89 1013.6
20260906132258 25 179 0.0 3.2 0.00 0.00 0.00 89 1013.6
20260906132157 25 179 0.0 3.2 0.00 0.00 0.00 89 1013.6
20260906132058 24 179 0.0 3.2 0.00 0.00 0.00 89 1013.6
20260906131957 24 180 0.0 3.2 0.00 0.00 0.00 90 1013.6
20260906131857 24 180 0.0 3.2 0.00 0.00 0.00 90 1013.6
20260906131757 24 180 0.0 3.2 0.00 0.00 0.00 90 1013.6
20260906131657 24 180 1.6 3.2 0.00 0.00 0.00 90 1013.6
20260906131607 24 180 0.0 3.2 0.00 0.00 0.00 91 1011.8
20260906131558 24 180 1.6 3.2 0.00 0.00 0.00 91 1013.6
20260906131457 24 180 0.0 3.2 0.00 0.00 0.00 91 1013.6
20260906131257 23 185 0.0 3.2 0.00 0.00 0.00 91 1013.6
20260906131157 23 187 0.0 3.2 0.00 0.00 0.00 91 1013.6
20260906131057 23 187 0.0 3.2 0.00 0.00 0.00 92 1013.6
20260906130957 23 187 0.0 3.2 0.00 0.00 0.00 92 1013.6
20260906130858 23 188 0.0 1.6 0.00 0.00 0.00 92 1013.6
20260906130758 23 188 0.0 1.6 0.00 0.00 0.00 92 1013.6
20260906130656 23 188 0.0 1.6 0.00 0.00 0.00 92 1013.6
20260906130557 23 188 0.0 1.6 0.00 0.00 0.00 92 1013.6
20260906130457 23 188 0.0 1.6 0.00 0.00 0.00 92 1013.6
20260906130357 23 188 0.0 1.6 0.00 0.00 0.00 92 1013.7
20260906130258 23 188 0.0 1.6 0.00 0.00 0.00 92 1013.7
20260906130157 23 188 0.0 0.0 0.00 0.00 0.00 92 1013.6
20260906130057 23 188 0.0 0.0 0.00 0.00 0.00 92 1013.6
20260906125557 23 188 0.0 0.0 0.00 0.00 0.00 92 1013.6
20260906125457 23 188 0.0 0.0 0.00 0.00 0.00 92 1013.6
20260906125357 23 188 0.0 0.0 0.00 0.00 0.00 92 1013.6
20260906125259 23 188 0.0 0.0 0.00 0.00 0.00 92 1013.6
20260906125157 23 196 0.0 0.0 0.00 0.00 0.00 91 1013.5
20260906125058 23 195 0.0 0.0 0.00 0.00 0.00 91 1013.6
20260906124958 22 153 0.0 0.0 0.00 0.00 0.00 91 1013.5
20260906124857 22 138 0.0 0.0 0.00 0.00 0.00 91 1013.5
20260906124757 22 138 0.0 0.0 0.00 0.00 0.00 91 1013.5
20260906124657 22 138 0.0 0.0 0.00 0.00 0.00 91 1013.6
20260906124557 22 138 0.0 0.0 0.00 0.00 0.00 90 1013.5
20260906124457 22 138 0.0 0.0 0.00 0.00 0.00 90 1013.6
20260906124358 22 138 0.0 0.0 0.00 0.00 0.00 90 1013.6
20260906124058 22 138 0.0 0.0 0.00 0.00 0.00 90 1013.5
20260906123958 22 138 0.0 0.0 0.00 0.00 0.00 90 1013.5
20260906123857 22 138 0.0 0.0 0.00 0.00 0.00 90 1013.5
20260906123757 22 138 0.0 0.0 0.00 0.00 0.00 90 1013.5
20260906123659 22 138 0.0 0.0 0.00 0.00 0.00 90 1013.5
20260906123557 22 138 0.0 0.0 0.00 0.00 0.00 90 1013.4
20260906123457 22 138 0.0 0.0 0.00 0.00 0.00 90 1013.4
20260906123357 22 138 0.0 0.0 0.00 0.00 0.00 89 1013.4
20260906123258 22 138 0.0 0.0 0.00 0.00 0.00 89 1013.4
20260906123158 22 138 0.0 0.0 0.00 0.00 0.00 89 1013.4
20260906123106 22 138 0.0 0.0 0.00 0.00 0.00 89 1011.5
20260906123057 22 138 0.0 0.0 0.00 0.00 0.00 89 1013.4
20260906122858 22 138 0.0 0.0 0.00 0.00 0.00 88 1013.4
20260906122757 22 138 0.0 0.0 0.00 0.00 0.00 88 1013.3
20260906122658 22 138 0.0 0.0 0.00 0.00 0.00 88 1013.3
20260906122557 22 138 0.0 0.0 0.00 0.00 0.00 88 1013.4
20260906122458 22 138 0.0 0.0 0.00 0.00 0.00 87 1013.4
20260906122257 22 138 0.0 0.0 0.00 0.00 0.00 88 1013.3
20260906122159 22 138 0.0 0.0 0.00 0.00 0.00 91 1013.3
20260906121959 22 138 0.0 0.0 0.00 0.00 0.00 91 1013.3
20260906121857 22 138 0.0 0.0 0.00 0.00 0.00 91 1013.2
20260906121758 22 138 0.0 0.0 0.00 0.00 0.00 91 1013.2
20260906121604 22 138 0.0 0.0 0.00 0.00 0.00 91 1011.3
20260906121458 22 138 0.0 0.0 0.00 0.00 0.00 91 1013.2
20260906121357 22 138 0.0 0.0 0.00 0.00 0.00 91 1013.2
20260906121258 22 138 0.0 0.0 0.00 0.00 0.00 91 1013.2
20260906121159 22 138 0.0 0.0 0.00 0.00 0.00 91 1013.2
20260906121057 22 138 0.0 0.0 0.00 0.00 0.00 91 1013.1
20260906120957 22 138 0.0 0.0 0.00 0.00 0.00 91 1013.2
20260906120858 22 138 0.0 0.0 0.00 0.00 0.00 91 1013.2
20260906120657 22 138 0.0 0.0 0.00 0.00 0.00 90 1013.1
20260906120558 22 138 0.0 0.0 0.00 0.00 0.00 90 1013.2
20260906120457 22 138 0.0 0.0 0.00 0.00 0.00 90 1013.1
20260906120359 22 138 0.0 0.0 0.00 0.00 0.00 90 1013.2
20260906120257 22 138 0.0 0.0 0.00 0.00 0.00 90 1013.2
20260906120157 22 138 0.0 0.0 0.00 0.00 0.00 90 1013.2
20260906120104 22 138 0.0 0.0 0.00 0.00 0.00 90 1011.3
20260906120058 22 138 0.0 0.0 0.00 0.00 0.00 90 1013.2
20260906115957 22 138 0.0 0.0 0.00 0.00 0.00 90 1013.2
20260906115756 22 138 0.0 0.0 0.00 0.00 0.00 90 1013.2
20260906115658 22 138 0.0 0.0 0.00 0.00 0.00 90 1013.2
20260906115556 22 138 0.0 0.0 0.00 0.00 0.00 90 1013.1
20260906115457 22 138 0.0 0.0 0.00 0.00 0.00 90 1013.1
20260906115256 22 138 0.0 0.0 0.00 0.00 0.00 90 1013.0
20260906115057 22 138 0.0 0.0 0.00 0.00 0.00 90 1013.0
20260906114956 22 138 0.0 0.0 0.00 0.00 0.00 90 1013.0
20260906114857 22 138 0.0 0.0 0.00 0.00 0.00 90 1013.0
20260906114756 22 138 0.0 0.0 0.00 0.00 0.00 90 1013.0
20260906114656 22 138 0.0 0.0 0.00 0.00 0.00 90 1013.0
20260906114558 22 138 0.0 0.0 0.00 0.00 0.00 90 1011.1
20260906114556 22 138 0.0 0.0 0.00 0.00 0.00 90 1013.0
20260906114456 22 138 0.0 0.0 0.00 0.00 0.00 90 1013.0
20260906114357 22 138 0.0 0.0 0.00 0.00 0.00 90 1013.0
20260906114256 22 138 0.0 0.0 0.00 0.00 0.00 90 1013.0
20260906114157 22 138 0.0 0.0 0.00 0.00 0.00 89 1013.0
20260906114056 22 138 0.0 0.0 0.00 0.00 0.00 89 1013.0
20260906113957 22 138 0.0 0.0 0.00 0.00 0.00 89 1013.0
20260906113857 22 138 0.0 0.0 0.00 0.00 0.00 88 1013.0
20260906113657 22 138 0.0 0.0 0.00 0.00 0.00 88 1013.0
20260906113557 22 138 0.0 0.0 0.00 0.00 0.00 88 1013.0
20260906113456 22 138 0.0 0.0 0.00 0.00 0.00 88 1013.0
20260906113357 22 138 0.0 0.0 0.00 0.00 0.00 88 1013.1
20260906113256 22 138 0.0 0.0 0.00 0.00 0.00 89 1013.0
20260906113156 22 138 0.0 0.0 0.00 0.00 0.00 89 1013.0
20260906113057 22 138 0.0 0.0 0.00 0.00 0.00 89 1013.1
20260906112957 22 138 0.0 0.0 0.00 0.00 0.00 89 1013.0
20260906112857 22 138 0.0 0.0 0.00 0.00 0.00 89 1013.0
20260906112557 22 138 0.0 0.0 0.00 0.00 0.00 89 1012.9
20260906112356 22 138 0.0 0.0 0.00 0.00 0.00 88 1012.9
20260906112257 22 138 0.0 0.0 0.00 0.00 0.00 88 1012.9
20260906112058 22 138 0.0 0.0 0.00 0.00 0.00 89 1012.9
20260906111957 23 138 0.0 0.0 0.00 0.00 0.00 89 1012.9
20260906111756 23 138 0.0 0.0 0.00 0.00 0.00 89 1012.9
20260906111656 23 138 0.0 0.0 0.00 0.00 0.00 89 1012.9
20260906111557 23 138 0.0 0.0 0.00 0.00 0.00 89 1012.9
20260906111456 23 138 0.0 0.0 0.00 0.00 0.00 89 1012.9
20260906111357 23 138 0.0 0.0 0.00 0.00 0.00 89 1012.9
20260906111257 23 138 0.0 0.0 0.00 0.00 0.00 89 1012.8
20260906111156 23 138 0.0 0.0 0.00 0.00 0.00 88 1012.8
20260906111057 23 138 0.0 0.0 0.00 0.00 0.00 88 1012.7
20260906110856 23 138 0.0 0.0 0.00 0.00 0.00 88 1012.7
20260906110759 23 138 0.0 0.0 0.00 0.00 0.00 88 1012.7
20260906110657 23 138 0.0 0.0 0.00 0.00 0.00 88 1012.6
20260906110556 23 138 0.0 0.0 0.00 0.00 0.00 88 1012.6
20260906110457 23 138 0.0 0.0 0.00 0.00 0.00 88 1012.6
20260906110358 23 138 0.0 0.0 0.00 0.00 0.00 88 1012.6
20260906110257 23 138 0.0 0.0 0.00 0.00 0.00 88 1012.5
20260906110056 23 138 0.0 0.0 0.00 0.00 0.00 87 1010.7
20260906105959 23 138 0.0 0.0 0.00 0.00 0.00 87 1012.5
20260906105856 23 138 0.0 0.0 0.00 0.00 0.00 87 1012.5
20260906105558 23 138 0.0 0.0 0.00 0.00 0.00 87 1012.5
20260906105457 23 138 0.0 0.0 0.00 0.00 0.00 87 1012.5
20260906105358 23 138 0.0 0.0 0.00 0.00 0.00 87 1012.5
20260906105258 23 138 0.0 0.0 0.00 0.00 0.00 87 1012.5
20260906105157 23 138 0.0 0.0 0.00 0.00 0.00 87 1012.5
20260906105057 23 138 0.0 0.0 0.00 0.00 0.00 87 1012.5
20260906104958 23 138 0.0 0.0 0.00 0.00 0.00 87 1012.5
20260906104858 23 138 0.0 0.0 0.00 0.00 0.00 87 1012.5
20260906104758 23 138 0.0 0.0 0.00 0.00 0.00 87 1012.5
20260906104658 23 138 0.0 0.0 0.00 0.00 0.00 87 1012.4
20260906104557 23 138 0.0 0.0 0.00 0.00 0.00 87 1012.4
20260906104358 23 138 0.0 0.0 0.00 0.00 0.00 87 1012.4
20260906104256 23 138 0.0 0.0 0.00 0.00 0.00 87 1012.4
20260906104156 23 138 0.0 0.0 0.00 0.00 0.00 87 1012.4
20260906104056 23 138 0.0 0.0 0.00 0.00 0.00 87 1012.4
20260906103956 23 138 0.0 0.0 0.00 0.00 0.00 87 1012.4
20260906103856 23 138 0.0 0.0 0.00 0.00 0.00 87 1012.4
20260906103756 23 138 0.0 0.0 0.00 0.00 0.00 87 1012.4
20260906103656 23 138 0.0 0.0 0.00 0.00 0.00 87 1012.4
20260906103557 23 138 0.0 0.0 0.00 0.00 0.00 87 1012.5
20260906103357 23 138 0.0 0.0 0.00 0.00 0.00 87 1012.4
20260906103256 23 138 0.0 0.0 0.00 0.00 0.00 87 1012.3
20260906103156 23 138 0.0 0.0 0.00 0.00 0.00 87 1012.3
20260906103056 23 138 0.0 0.0 0.00 0.00 0.00 87 1010.5
20260906102956 23 138 0.0 0.0 0.00 0.00 0.00 87 1012.3
20260906102856 23 138 0.0 0.0 0.00 0.00 0.00 87 1012.3
20260906102756 23 138 0.0 0.0 0.00 0.00 0.00 87 1012.3
20260906102556 23 138 0.0 1.6 0.00 0.00 0.00 87 1012.3
20260906102457 23 138 0.0 3.2 0.00 0.00 0.00 87 1012.3
20260906102357 23 138 0.0 3.2 0.00 0.00 0.00 87 1012.3
20260906102257 23 138 0.0 3.2 0.00 0.00 0.00 87 1012.3
20260906101956 23 138 0.0 3.2 0.00 0.00 0.00 87 1012.2
20260906101856 23 138 0.0 3.2 0.00 0.00 0.00 87 1012.3
20260906101600 23 138 0.0 3.2 0.00 0.00 0.00 87 1010.4
20260906101557 23 138 0.0 3.2 0.00 0.00 0.00 87 1012.2
20260906101457 23 138 0.0 3.2 0.00 0.00 0.00 87 1012.3
20260906101356 23 138 0.0 3.2 0.00 0.00 0.00 86 1012.3
20260906101257 23 138 0.0 3.2 0.00 0.00 0.00 86 1012.2
20260906101157 23 138 0.0 3.2 0.00 0.00 0.00 86 1012.3
20260906101056 23 138 0.0 3.2 0.00 0.00 0.00 86 1012.2
20260906100857 23 138 0.0 3.2 0.00 0.00 0.00 86 1012.2
20260906100756 23 138 0.0 3.2 0.00 0.00 0.00 86 1012.3
20260906100657 23 138 0.0 1.6 0.00 0.00 0.00 86 1012.3
20260906100556 23 138 0.0 1.6 0.00 0.00 0.00 86 1012.2
20260906100356 23 138 0.0 1.6 0.00 0.00 0.00 86 1012.2
20260906100257 23 138 0.0 1.6 0.00 0.00 0.00 86 1012.2
20260906100157 23 138 0.0 1.6 0.00 0.00 0.00 86 1012.2
20260906100057 23 138 0.0 0.0 0.00 0.00 0.00 86 1010.4
20260906095957 23 138 0.0 0.0 0.00 0.00 0.00 86 1012.2
20260906095857 23 138 0.0 0.0 0.00 0.00 0.00 86 1012.3
20260906095757 23 138 0.0 0.0 0.00 0.00 0.00 86 1012.2
20260906095556 23 138 0.0 0.0 0.00 0.00 0.00 86 1012.2
20260906095457 23 138 0.0 0.0 0.00 0.00 0.00 86 1012.2
20260906095357 23 138 0.0 0.0 0.00 0.00 0.00 86 1012.1
20260906095256 23 138 0.0 0.0 0.00 0.00 0.00 86 1012.1
20260906095156 23 138 0.0 0.0 0.00 0.00 0.00 86 1012.1
20260906095056 23 138 0.0 0.0 0.00 0.00 0.00 86 1012.1
20260906094956 23 138 0.0 0.0 0.00 0.00 0.00 86 1012.1
20260906094858 23 138 0.0 0.0 0.00 0.00 0.00 86 1012.1
20260906094756 23 138 0.0 0.0 0.00 0.00 0.00 86 1012.1
20260906094656 23 138 0.0 0.0 0.00 0.00 0.00 86 1012.1
20260906094602 23 138 0.0 0.0 0.00 0.00 0.00 86 1010.3
20260906094556 23 138 0.0 0.0 0.00 0.00 0.00 86 1012.1
20260906094456 23 138 0.0 0.0 0.00 0.00 0.00 86 1012.1
20260906094356 23 138 0.0 0.0 0.00 0.00 0.00 86 1012.1
20260906094256 23 138 0.0 0.0 0.00 0.00 0.00 86 1012.1
20260906094057 23 138 0.0 0.0 0.00 0.00 0.00 86 1012.1
20260906093956 23 138 0.0 0.0 0.00 0.00 0.00 86 1012.0
20260906093856 23 138 0.0 0.0 0.00 0.00 0.00 86 1012.0
20260906093756 23 138 0.0 0.0 0.00 0.00 0.00 86 1012.0
20260906093557 23 138 0.0 0.0 0.00 0.00 0.00 86 1012.0
20260906093456 23 138 0.0 0.0 0.00 0.00 0.00 86 1012.0
20260906093356 23 138 0.0 0.0 0.00 0.00 0.00 86 1012.0
20260906093256 23 138 0.0 0.0 0.00 0.00 0.00 86 1012.0
20260906093156 23 138 0.0 0.0 0.00 0.00 0.00 86 1012.0
20260906093056 23 138 0.0 0.0 0.00 0.00 0.00 86 1010.3
20260906092958 23 138 0.0 0.0 0.00 0.00 0.00 86 1012.1
20260906092859 23 138 0.0 0.0 0.00 0.00 0.00 85 1012.1
20260906092756 23 138 0.0 0.0 0.00 0.00 0.00 85 1012.1
20260906092656 23 138 0.0 0.0 0.00 0.00 0.00 85 1012.1
20260906092557 23 138 0.0 0.0 0.00 0.00 0.00 85 1012.1
20260906092456 23 138 0.0 0.0 0.00 0.00 0.00 85 1012.1
20260906092357 23 138 0.0 0.0 0.00 0.00 0.00 85 1012.1
20260906092157 23 138 0.0 0.0 0.00 0.00 0.00 85 1012.0
20260906091958 23 138 0.0 0.0 0.00 0.00 0.00 85 1012.1
20260906091856 23 138 0.0 0.0 0.00 0.00 0.00 85 1012.1
20260906091756 23 138 0.0 0.0 0.00 0.00 0.00 85 1012.0
20260906091656 23 138 0.0 0.0 0.00 0.00 0.00 85 1012.0
20260906091558 23 138 0.0 0.0 0.00 0.00 0.00 85 1012.1
20260906091556 23 138 0.0 0.0 0.00 0.00 0.00 85 1010.3
20260906091457 23 138 0.0 0.0 0.00 0.00 0.00 85 1012.1
20260906091356 23 138 0.0 0.0 0.00 0.00 0.00 85 1012.1
20260906091257 23 138 0.0 0.0 0.00 0.00 0.00 85 1012.1
20260906091057 23 138 0.0 0.0 0.00 0.00 0.00 84 1012.0
20260906090956 23 138 0.0 0.0 0.00 0.00 0.00 84 1012.0
20260906090857 23 138 0.0 0.0 0.00 0.00 0.00 84 1012.1
20260906090757 23 138 0.0 0.0 0.00 0.00 0.00 84 1012.1
20260906090656 23 138 0.0 0.0 0.00 0.00 0.00 84 1012.1
20260906090557 23 138 0.0 0.0 0.00 0.00 0.00 84 1012.1
20260906090458 23 138 0.0 0.0 0.00 0.00 0.00 84 1012.1
20260906090257 23 138 0.0 0.0 0.00 0.00 0.00 84 1012.1
20260906090057 23 138 0.0 0.0 0.00 0.00 0.00 84 1010.2
20260906085957 23 138 0.0 0.0 0.00 0.00 0.00 84 1012.1
20260906085656 23 138 0.0 0.0 0.00 0.00 0.00 84 1012.0
20260906085556 23 138 0.0 0.0 0.00 0.00 0.00 84 1011.9
20260906085456 23 138 0.0 0.0 0.00 0.00 0.00 84 1011.9
20260906085356 23 138 0.0 0.0 0.00 0.00 0.00 84 1011.9
20260906085258 23 138 0.0 0.0 0.00 0.00 0.00 84 1011.8
20260906085157 23 138 0.0 0.0 0.00 0.00 0.00 84 1011.8
20260906085056 23 138 0.0 0.0 0.00 0.00 0.00 84 1011.8
20260906084957 23 138 0.0 0.0 0.00 0.00 0.00 84 1011.8
20260906084856 23 138 0.0 0.0 0.00 0.00 0.00 84 1011.9
20260906084756 24 138 0.0 0.0 0.00 0.00 0.00 84 1011.8
20260906084656 24 138 0.0 0.0 0.00 0.00 0.00 83 1011.8
20260906084558 24 138 0.0 0.0 0.00 0.00 0.00 83 1010.0
20260906084456 24 138 0.0 0.0 0.00 0.00 0.00 84 1011.8
20260906084159 24 138 0.0 0.0 0.00 0.00 0.00 84 1011.7
20260906084057 24 138 0.0 0.0 0.00 0.00 0.00 84 1011.7
20260906083955 24 138 0.0 0.0 0.00 0.00 0.00 83 1011.7
20260906083857 24 138 0.0 0.0 0.00 0.00 0.00 83 1011.8
20260906083557 24 138 0.0 0.0 0.00 0.00 0.00 83 1011.7
20260906083457 24 138 0.0 0.0 0.00 0.00 0.00 83 1011.8
20260906083358 24 138 0.0 0.0 0.00 0.00 0.00 82 1011.7
20260906083256 24 138 0.0 0.0 0.00 0.00 0.00 82 1011.7
20260906083156 24 138 0.0 0.0 0.00 0.00 0.00 82 1011.7
20260906083103 24 138 0.0 0.0 0.00 0.00 0.00 82 1009.8
20260906083057 24 138 0.0 0.0 0.00 0.00 0.00 82 1011.7
20260906082957 24 138 0.0 0.0 0.00 0.00 0.00 82 1011.7
20260906082857 24 138 0.0 0.0 0.00 0.00 0.00 82 1011.7
20260906082658 24 138 0.0 0.0 0.00 0.00 0.00 81 1011.7
20260906082556 24 138 0.0 0.0 0.00 0.00 0.00 81 1011.7
20260906082457 24 138 0.0 0.0 0.00 0.00 0.00 81 1011.6
20260906082356 24 138 0.0 0.0 0.00 0.00 0.00 81 1011.7
20260906082257 24 138 0.0 0.0 0.00 0.00 0.00 81 1011.7
20260906082156 25 138 0.0 0.0 0.00 0.00 0.00 80 1011.6
20260906082058 25 138 0.0 0.0 0.00 0.00 0.00 80 1011.7
20260906081856 25 138 0.0 0.0 0.00 0.00 0.00 81 1011.7
20260906081757 25 138 0.0 0.0 0.00 0.00 0.00 81 1011.7
20260906081656 25 138 0.0 0.0 0.00 0.00 0.00 81 1011.7
20260906081556 25 138 0.0 0.0 0.00 0.00 0.00 81 1011.7
20260906081356 25 138 0.0 0.0 0.00 0.00 0.00 81 1011.7
20260906081256 25 138 0.0 0.0 0.00 0.00 0.00 81 1011.7
20260906081156 25 138 0.0 0.0 0.00 0.00 0.00 81 1011.7
20260906080956 25 138 0.0 0.0 0.00 0.00 0.00 81 1011.7
20260906080756 25 138 0.0 0.0 0.00 0.00 0.00 81 1011.7
20260906080657 25 138 0.0 0.0 0.00 0.00 0.00 81 1011.7
20260906080556 25 138 0.0 0.0 0.00 0.00 0.00 81 1011.7
20260906080456 25 138 0.0 0.0 0.00 0.00 0.00 81 1011.7
20260906080356 25 138 0.0 0.0 0.00 0.00 0.00 81 1011.7
20260906080256 25 138 0.0 0.0 0.00 0.00 0.00 81 1011.7
20260906080157 25 138 0.0 0.0 0.00 0.00 0.00 81 1011.7
20260906080056 25 138 0.0 0.0 0.00 0.00 0.00 81 1009.9
20260906075855 25 138 0.0 0.0 0.00 0.00 0.00 81 1011.7
20260906075756 25 138 0.0 0.0 0.00 0.00 0.00 81 1011.7
20260906075655 25 138 0.0 0.0 0.00 0.00 0.00 81 1011.7
20260906075556 25 138 0.0 0.0 0.00 0.00 0.00 81 1011.7
20260906075455 25 138 0.0 0.0 0.00 0.00 0.00 81 1011.7
20260906075356 25 138 0.0 1.6 0.00 0.00 0.00 81 1011.7
20260906075255 25 138 0.0 1.6 0.00 0.00 0.00 80 1011.7
20260906075155 25 138 0.0 1.6 0.00 0.00 0.00 80 1011.7
20260906075056 25 138 0.0 1.6 0.00 0.00 0.00 80 1011.7
20260906074855 25 138 0.0 1.6 0.00 0.00 0.00 80 1011.6
20260906074755 25 138 0.0 1.6 0.00 0.00 0.00 80 1011.6
20260906074655 25 138 0.0 1.6 0.00 0.00 0.00 80 1011.6
20260906074555 25 138 0.0 1.6 0.00 0.00 0.00 80 1011.6
20260906074455 25 138 0.0 1.6 0.00 0.00 0.00 80 1011.7
20260906074356 25 138 0.0 1.6 0.00 0.00 0.00 80 1011.7
20260906074255 25 138 0.0 1.6 0.00 0.00 0.00 80 1011.7
20260906074155 25 138 0.0 1.6 0.00 0.00 0.00 80 1011.6
20260906074055 25 138 0.0 0.0 0.00 0.00 0.00 80 1011.7
20260906073857 25 138 0.0 0.0 0.00 0.00 0.00 80 1011.6
20260906073755 25 138 0.0 0.0 0.00 0.00 0.00 80 1011.7
20260906073655 25 138 0.0 0.0 0.00 0.00 0.00 80 1011.7
20260906073556 25 138 0.0 0.0 0.00 0.00 0.00 80 1011.7
20260906073455 25 138 0.0 0.0 0.00 0.00 0.00 80 1011.7
20260906073355 25 138 0.0 0.0 0.00 0.00 0.00 80 1011.7
20260906073255 25 138 0.0 1.6 0.00 0.00 0.00 80 1011.7
20260906073055 25 138 0.0 1.6 0.00 0.00 0.00 80 1011.7
20260906072955 25 138 0.0 1.6 0.00 0.00 0.00 80 1011.8
20260906072855 25 138 0.0 1.6 0.00 0.00 0.00 80 1011.8
20260906072755 25 138 0.0 3.2 0.00 0.00 0.00 80 1011.8
20260906072656 25 138 0.0 3.2 0.00 0.00 0.00 80 1011.8
20260906072555 25 138 0.0 3.2 0.00 0.00 0.00 80 1011.8
20260906072355 25 138 0.0 3.2 0.00 0.00 0.00 80 1011.8
20260906072155 25 138 0.0 3.2 0.00 0.00 0.00 80 1011.9
20260906072055 25 138 0.0 3.2 0.00 0.00 0.00 80 1011.9
20260906071956 25 138 0.0 3.2 0.00 0.00 0.00 80 1011.9
20260906071757 25 137 0.0 3.2 0.00 0.00 0.00 80 1011.9
20260906071554 25 137 0.0 3.2 0.00 0.00 0.00 80 1010.1
20260906071256 25 137 0.0 6.4 0.00 0.00 0.00 80 1011.9
20260906071155 25 137 0.0 6.4 0.00 0.00 0.00 80 1011.9
20260906071056 25 137 1.6 6.4 0.00 0.00 0.00 80 1011.9
20260906070954 25 136 1.6 6.4 0.00 0.00 0.00 80 1011.9
20260906070858 25 136 1.6 6.4 0.00 0.00 0.00 80 1011.9
20260906070755 25 137 1.6 6.4 0.00 0.00 0.00 79 1011.9
20260906070656 25 136 1.6 6.4 0.00 0.00 0.00 79 1011.9
20260906070555 25 140 1.6 3.2 0.00 0.00 0.00 79 1011.9
20260906070355 25 137 0.0 3.2 0.00 0.00 0.00 79 1011.9
20260906070257 25 136 0.0 3.2 0.00 0.00 0.00 79 1011.9
20260906070155 25 136 0.0 3.2 0.00 0.00 0.00 79 1011.9
20260906070055 25 137 0.0 3.2 0.00 0.00 0.00 79 1011.9
20260906065958 25 137 0.0 3.2 0.00 0.00 0.00 79 1012.0
20260906065857 25 136 0.0 3.2 0.00 0.00 0.00 79 1012.0
20260906065757 25 136 0.0 3.2 0.00 0.00 0.00 78 1012.0
20260906065557 25 136 0.0 3.2 0.00 0.00 0.00 78 1012.0
20260906065456 25 136 0.0 3.2 0.00 0.00 0.00 78 1012.0
20260906065356 25 136 0.0 3.2 0.00 0.00 0.00 78 1012.0
20260906065256 25 136 0.0 3.2 0.00 0.00 0.00 78 1012.0
20260906065157 25 136 0.0 3.2 0.00 0.00 0.00 78 1012.1
20260906065057 25 136 1.6 3.2 0.00 0.00 0.00 78 1012.1
20260906064956 25 136 3.2 3.2 0.00 0.00 0.00 78 1012.1
20260906064857 25 136 3.2 3.2 0.00 0.00 0.00 77 1012.1
20260906064656 25 136 1.6 3.2 0.00 0.00 0.00 77 1012.1
20260906064556 25 136 0.0 3.2 0.00 0.00 0.00 78 1010.2
20260906064456 25 136 0.0 0.0 0.00 0.00 0.00 78 1012.0
20260906064357 25 136 0.0 0.0 0.00 0.00 0.00 78 1012.0
20260906064255 25 136 0.0 0.0 0.00 0.00 0.00 78 1012.0
20260906064156 25 136 0.0 0.0 0.00 0.00 0.00 78 1011.9
20260906064056 25 136 0.0 0.0 0.00 0.00 0.00 78 1012.0
20260906063956 25 136 0.0 0.0 0.00 0.00 0.00 78 1012.0
20260906063756 25 136 0.0 0.0 0.00 0.00 0.00 78 1012.1
20260906063457 25 136 0.0 0.0 0.00 0.00 0.00 78 1012.0
20260906063257 25 136 0.0 0.0 0.00 0.00 0.00 77 1012.0
20260906063156 25 136 0.0 0.0 0.00 0.00 0.00 78 1012.0
20260906063057 25 136 0.0 0.0 0.00 0.00 0.00 78 1012.0
20260906062956 25 136 0.0 1.6 0.00 0.00 0.00 78 1012.0
20260906062856 25 136 0.0 1.6 0.00 0.00 0.00 78 1012.0
20260906062757 25 136 0.0 1.6 0.00 0.00 0.00 78 1012.0
20260906062656 25 136 0.0 1.6 0.00 0.00 0.00 78 1012.0
20260906062557 25 136 0.0 3.2 0.00 0.00 0.00 77 1012.1
20260906062456 25 136 0.0 3.2 0.00 0.00 0.00 77 1012.0
20260906062257 25 136 0.0 3.2 0.00 0.00 0.00 78 1012.1
20260906061956 25 136 0.0 4.8 0.00 0.00 0.00 77 1012.1
20260906061856 25 136 1.6 4.8 0.00 0.00 0.00 77 1012.1
20260906061757 25 136 1.6 4.8 0.00 0.00 0.00 77 1012.0
20260906061656 25 136 1.6 4.8 0.00 0.00 0.00 77 1012.0
20260906061558 25 136 0.0 4.8 0.00 0.00 0.00 77 1010.2
20260906061457 25 136 1.6 4.8 0.00 0.00 0.00 77 1012.0
20260906061358 25 136 1.6 4.8 0.00 0.00 0.00 77 1012.0
20260906061258 26 136 1.6 4.8 0.00 0.00 0.00 76 1011.9
20260906061157 26 137 1.6 4.8 0.00 0.00 0.00 76 1011.9
20260906061057 26 138 1.6 3.2 0.00 0.00 0.00 76 1012.0
20260906060957 26 138 1.6 1.6 0.00 0.00 0.00 76 1011.9
20260906060757 26 138 0.0 1.6 0.00 0.00 0.00 75 1011.9
20260906060657 26 138 0.0 1.6 0.00 0.00 0.00 75 1011.9
20260906060556 26 138 0.0 3.2 0.00 0.00 0.00 75 1011.9
20260906060357 26 138 0.0 3.2 0.00 0.00 0.00 75 1011.8
20260906060157 26 138 0.0 3.2 0.00 0.00 0.00 75 1011.8
20260906060132 26 138 0.0 3.2 0.00 0.00 0.00 75 1009.9
20260906060057 26 138 0.0 3.2 0.00 0.00 0.00 75 1011.8
20260906060002 26 138 0.0 3.2 0.00 0.00 0.00 75 1011.8
20260906055800 26 138 0.0 3.2 0.00 0.00 0.00 74 1011.7
20260906055701 26 138 0.0 1.6 0.00 0.00 0.00 74 1011.7
20260906055600 26 138 0.0 1.6 0.00 0.00 0.00 74 1011.7
20260906055500 26 138 0.0 1.6 0.00 0.00 0.00 74 1011.8
20260906055401 26 138 0.0 1.6 0.00 0.00 0.00 74 1011.8
20260906055300 26 138 0.0 1.6 0.00 0.00 0.00 74 1011.8
20260906055200 26 138 0.0 1.6 0.00 0.00 0.00 74 1011.8
20260906055100 26 138 0.0 0.0 0.00 0.00 0.00 74 1011.8
20260906055001 26 138 0.0 0.0 0.00 0.00 0.00 74 1011.8
20260906054701 26 138 0.0 0.0 0.00 0.00 0.00 74 1011.8
20260906054612 26 138 0.0 0.0 0.00 0.00 0.00 74 1009.9
20260906054602 26 138 0.0 0.0 0.00 0.00 0.00 74 1011.7
20260906054501 26 138 0.0 0.0 0.00 0.00 0.00 74 1011.8
20260906054401 26 138 0.0 0.0 0.00 0.00 0.00 74 1011.8
20260906054303 26 138 0.0 3.2 0.00 0.00 0.00 74 1011.8
20260906054202 26 138 0.0 3.2 0.00 0.00 0.00 74 1011.9
20260906054100 26 138 0.0 3.2 0.00 0.00 0.00 74 1011.9
20260906054001 26 138 0.0 3.2 0.00 0.00 0.00 74 1011.9
20260906053901 26 138 0.0 3.2 0.00 0.00 0.00 74 1012.0
20260906053801 26 138 0.0 3.2 0.00 0.00 0.00 73 1012.0
20260906053600 26 138 0.0 3.2 0.00 0.00 0.00 73 1012.1
20260906053500 26 138 0.0 3.2 0.00 0.00 0.00 73 1012.1
20260906053400 26 138 0.0 0.0 0.00 0.00 0.00 73 1012.0
20260906053300 26 138 0.0 0.0 0.00 0.00 0.00 73 1012.0
20260906053200 26 138 0.0 0.0 0.00 0.00 0.00 73 1012.0
20260906053101 26 138 0.0 0.0 0.00 0.00 0.00 73 1012.0
20260906053000 26 138 0.0 0.0 0.00 0.00 0.00 73 1012.1
20260906052901 26 138 0.0 0.0 0.00 0.00 0.00 73 1012.1
20260906052800 26 138 0.0 0.0 0.00 0.00 0.00 73 1012.1
20260906052702 26 138 0.0 3.2 0.00 0.00 0.00 73 1012.1
20260906052600 26 138 0.0 3.2 0.00 0.00 0.00 73 1012.1
20260906052501 26 138 0.0 3.2 0.00 0.00 0.00 73 1012.1
20260906052300 26 138 0.0 3.2 0.00 0.00 0.00 73 1012.1
20260906052200 26 138 0.0 3.2 0.00 0.00 0.00 73 1012.1
20260906052000 27 138 0.0 3.2 0.00 0.00 0.00 72 1012.2
20260906051801 27 138 0.0 3.2 0.00 0.00 0.00 72 1012.2
20260906051701 27 138 0.0 3.2 0.00 0.00 0.00 72 1012.2
20260906051601 27 138 0.0 3.2 0.00 0.00 0.00 72 1012.2
20260906051501 27 137 0.0 3.2 0.00 0.00 0.00 72 1012.2
20260906051400 27 137 0.0 3.2 0.00 0.00 0.00 72 1012.1
20260906051202 27 137 0.0 3.2 0.00 0.00 0.00 71 1012.1
20260906051000 27 137 0.0 1.6 0.00 0.00 0.00 71 1012.1
20260906050901 27 136 0.0 1.6 0.00 0.00 0.00 71 1012.2
20260906050800 27 136 0.0 0.0 0.00 0.00 0.00 71 1012.2
20260906050701 27 136 0.0 0.0 0.00 0.00 0.00 71 1012.2
20260906050501 27 136 0.0 0.0 0.00 0.00 0.00 71 1012.1
20260906050401 27 136 0.0 3.2 0.00 0.00 0.00 71 1012.1
20260906050201 27 136 0.0 3.2 0.00 0.00 0.00 71 1012.1
20260906050100 27 136 0.0 3.2 0.00 0.00 0.00 71 1010.2
20260906050000 27 136 0.0 3.2 0.00 0.00 0.00 71 1012.1
20260906045900 27 136 0.0 3.2 0.00 0.00 0.00 70 1012.1
20260906045800 27 136 0.0 3.2 0.00 0.00 0.00 70 1012.1
20260906045701 27 136 0.0 3.2 0.00 0.00 0.00 70 1012.1
20260906045600 27 136 0.0 3.2 0.00 0.00 0.00 70 1012.1
20260906045500 27 136 0.0 3.2 0.00 0.00 0.00 70 1012.1
20260906045300 27 136 0.0 3.2 0.00 0.00 0.00 70 1012.1
20260906045200 27 136 0.0 3.2 0.00 0.00 0.00 70 1012.1
20260906045100 27 136 0.0 3.2 0.00 0.00 0.00 70 1012.1
20260906044900 27 136 0.0 0.0 0.00 0.00 0.00 70 1012.1
20260906044800 27 136 0.0 3.2 0.00 0.00 0.00 70 1012.1
20260906044700 27 136 0.0 3.2 0.00 0.00 0.00 69 1012.1
20260906044601 27 136 0.0 3.2 0.00 0.00 0.00 69 1012.1
20260906044500 27 136 0.0 3.2 0.00 0.00 0.00 69 1012.1
20260906044400 27 136 0.0 3.2 0.00 0.00 0.00 69 1012.1
20260906044300 27 136 0.0 3.2 0.00 0.00 0.00 69 1012.1
20260906044201 27 136 0.0 1.6 0.00 0.00 0.00 69 1012.1
20260906044102 27 136 0.0 1.6 0.00 0.00 0.00 69 1012.1
20260906043900 27 136 0.0 1.6 0.00 0.00 0.00 69 1012.1
20260906043800 27 136 0.0 1.6 0.00 0.00 0.00 69 1012.1
20260906043700 27 136 0.0 1.6 0.00 0.00 0.00 69 1012.1
20260906043600 27 136 0.0 1.6 0.00 0.00 0.00 69 1012.1
20260906043500 27 136 0.0 3.2 0.00 0.00 0.00 69 1012.1
20260906043400 27 136 0.0 3.2 0.00 0.00 0.00 68 1012.1
20260906043300 27 136 0.0 3.2 0.00 0.00 0.00 68 1012.1
20260906043200 27 136 0.0 3.2 0.00 0.00 0.00 68 1012.1
20260906043101 27 136 0.0 3.2 0.00 0.00 0.00 68 1012.1
20260906042900 27 136 0.0 3.2 0.00 0.00 0.00 68 1012.1
20260906042759 27 136 0.0 3.2 0.00 0.00 0.00 68 1012.0
20260906042701 27 136 0.0 3.2 0.00 0.00 0.00 68 1012.1
20260906042500 27 136 1.6 3.2 0.00 0.00 0.00 68 1012.1
20260906042400 27 136 0.0 3.2 0.00 0.00 0.00 68 1012.0
20260906042300 27 136 0.0 3.2 0.00 0.00 0.00 68 1012.0
20260906042201 27 136 0.0 3.2 0.00 0.00 0.00 68 1012.0
20260906042100 27 136 1.6 3.2 0.00 0.00 0.00 68 1011.9
20260906042000 28 136 1.6 4.8 0.00 0.00 0.00 68 1011.9
20260906041900 28 136 1.6 4.8 0.00 0.00 0.00 68 1012.0
20260906041601 28 136 1.6 4.8 0.00 0.00 0.00 67 1012.0
20260906041459 28 136 1.6 4.8 0.00 0.00 0.00 67 1012.0
20260906041400 28 136 1.6 4.8 0.00 0.00 0.00 67 1012.0
20260906041300 28 136 1.6 4.8 0.00 0.00 0.00 67 1011.9
20260906041200 28 128 1.6 4.8 0.00 0.00 0.00 67 1011.9
20260906041101 28 128 1.6 4.8 0.00 0.00 0.00 67 1011.9
20260906041000 28 128 1.6 4.8 0.00 0.00 0.00 66 1011.9
20260906040900 28 125 1.6 4.8 0.00 0.00 0.00 66 1012.0
20260906040802 28 125 1.6 4.8 0.00 0.00 0.00 66 1012.0
20260906040700 28 125 1.6 4.8 0.00 0.00 0.00 66 1011.9
20260906040600 28 134 1.6 4.8 0.00 0.00 0.00 66 1012.0
20260906040500 28 134 3.2 4.8 0.00 0.00 0.00 66 1011.9
20260906040401 28 134 3.2 4.8 0.00 0.00 0.00 65 1012.0
20260906040300 28 135 1.6 4.8 0.00 0.00 0.00 65 1011.9
20260906040201 28 135 1.6 4.8 0.00 0.00 0.00 65 1011.9
20260906040101 28 136 1.6 4.8 0.00 0.00 0.00 65 1011.9
20260906040001 28 136 1.6 4.8 0.00 0.00 0.00 65 1011.9
20260906035900 28 136 1.6 4.8 0.00 0.00 0.00 65 1011.9
20260906035800 28 138 1.6 4.8 0.00 0.00 0.00 65 1011.9
20260906035700 28 138 3.2 8.0 0.00 0.00 0.00 65 1011.9
20260906035601 28 138 3.2 8.0 0.00 0.00 0.00 65 1011.9
20260906035501 28 142 1.6 8.0 0.00 0.00 0.00 65 1011.9
20260906035402 28 142 1.6 8.0 0.00 0.00 0.00 65 1011.9
20260906035200 28 144 1.6 8.0 0.00 0.00 0.00 65 1011.9
20260906035000 28 146 1.6 8.0 0.00 0.00 0.00 64 1011.9
20260906034901 28 145 3.2 8.0 0.00 0.00 0.00 64 1011.9
20260906034800 28 146 3.2 8.0 0.00 0.00 0.00 64 1011.9
20260906034700 28 148 3.2 11.3 0.00 0.00 0.00 64 1012.0
20260906034606 28 141 1.6 11.3 0.00 0.00 0.00 64 1010.2
20260906034402 28 130 4.8 11.3 0.00 0.00 0.00 64 1012.0
20260906034301 28 136 4.8 11.3 0.00 0.00 0.00 64 1012.1
20260906034200 28 134 4.8 11.3 0.00 0.00 0.00 64 1012.1
20260906034100 29 139 4.8 11.3 0.00 0.00 0.00 64 1012.0
20260906033901 29 132 4.8 11.3 0.00 0.00 0.00 64 1012.0
20260906033800 29 129 4.8 9.7 0.00 0.00 0.00 64 1012.0
20260906033600 29 110 3.2 8.0 0.00 0.00 0.00 64 1012.0
20260906033500 29 121 1.6 9.7 0.00 0.00 0.00 63 1011.9
20260906033400 29 146 3.2 9.7 0.00 0.00 0.00 63 1011.9
20260906033300 29 143 3.2 9.7 0.00 0.00 0.00 63 1011.9
20260906033100 29 144 4.8 14.5 0.00 0.00 0.00 63 1011.9
20260906033000 29 154 4.8 14.5 0.00 0.00 0.00 63 1011.9
20260906032900 29 158 4.8 14.5 0.00 0.00 0.00 63 1011.9
20260906032800 29 146 4.8 14.5 0.00 0.00 0.00 63 1011.9
20260906032702 29 157 4.8 14.5 0.00 0.00 0.00 63 1011.9
20260906032601 29 146 4.8 14.5 0.00 0.00 0.00 63 1012.0
20260906032401 29 153 6.4 14.5 0.00 0.00 0.00 63 1011.9
20260906032300 29 153 6.4 14.5 0.00 0.00 0.00 62 1011.9
20260906032100 29 157 4.8 11.3 0.00 0.00 0.00 62 1011.9
20260906032001 29 135 6.4 11.3 0.00 0.00 0.00 62 1011.9
20260906031900 29 152 6.4 11.3 0.00 0.00 0.00 62 1011.9
20260906031800 29 148 6.4 11.3 0.00 0.00 0.00 62 1011.9
20260906031600 29 133 3.2 12.9 0.00 0.00 0.00 62 1010.1
20260906031501 29 150 3.2 17.7 0.00 0.00 0.00 62 1012.0
20260906031400 29 149 3.2 17.7 0.00 0.00 0.00 62 1012.0
20260906031300 29 149 4.8 17.7 0.00 0.00 0.00 62 1012.0
20260906031200 29 134 6.4 17.7 0.00 0.00 0.00 62 1012.0
20260906031001 29 150 6.4 17.7 0.00 0.00 0.00 62 1012.0
20260906030900 29 142 8.0 17.7 0.00 0.00 0.00 61 1012.0
20260906030800 30 161 8.0 17.7 0.00 0.00 0.00 61 1012.0
20260906030700 30 129 8.0 17.7 0.00 0.00 0.00 61 1011.9
20260906030600 30 137 8.0 14.5 0.00 0.00 0.00 61 1011.9
20260906030501 30 120 6.4 12.9 0.00 0.00 0.00 61 1012.0
20260906030400 30 139 8.0 12.9 0.00 0.00 0.00 61 1012.0
20260906030301 30 130 8.0 12.9 0.00 0.00 0.00 61 1011.9
20260906030201 30 157 8.0 12.9 0.00 0.00 0.00 61 1012.0
20260906030101 30 134 6.4 12.9 0.00 0.00 0.00 61 1012.0
20260906030000 30 124 6.4 12.9 0.00 0.00 0.00 61 1012.0
20260906025901 30 131 6.4 12.9 0.00 0.00 0.00 60 1012.0
20260906025800 30 151 6.4 11.3 0.00 0.00 0.00 60 1012.0
20260906025700 30 134 4.8 11.3 0.00 0.00 0.00 60 1011.9
20260906025501 30 150 4.8 11.3 0.00 0.00 0.00 60 1011.9
20260906025359 30 134 4.8 11.3 0.00 0.00 0.00 60 1011.9
20260906025300 30 122 4.8 11.3 0.00 0.00 0.00 60 1011.9
20260906025201 30 146 4.8 17.7 0.00 0.00 0.00 60 1011.9
20260906025100 30 123 4.8 17.7 0.00 0.00 0.00 60 1011.9
20260906024901 30 134 4.8 17.7 0.00 0.00 0.00 60 1011.9
20260906024700 30 119 4.8 17.7 0.00 0.00 0.00 59 1011.9
20260906024611 30 135 4.8 17.7 0.00 0.00 0.00 59 1010.0
20260906024600 30 135 6.4 17.7 0.00 0.00 0.00 59 1011.9
20260906024500 30 127 8.0 17.7 0.00 0.00 0.00 59 1011.9
20260906024400 30 155 8.0 17.7 0.00 0.00 0.00 59 1011.8
20260906024300 30 133 6.4 12.9 0.00 0.00 0.00 59 1011.8
20260906024201 30 124 4.8 11.3 0.00 0.00 0.00 59 1011.8
20260906024100 30 140 4.8 11.3 0.00 0.00 0.00 59 1011.8
20260906024000 30 137 4.8 17.7 0.00 0.00 0.00 59 1011.7
20260906023700 30 125 4.8 17.7 0.00 0.00 0.00 58 1011.7
20260906023600 30 133 4.8 17.7 0.00 0.00 0.00 58 1011.7
20260906023500 30 136 4.8 17.7 0.00 0.00 0.00 58 1011.7
20260906023400 30 142 4.8 17.7 0.00 0.00 0.00 58 1011.7
20260906023300 30 146 4.8 17.7 0.00 0.00 0.00 58 1011.6
20260906023101 30 148 6.4 17.7 0.00 0.00 0.00 58 1011.5
20260906023001 30 132 6.4 17.7 0.00 0.00 0.00 57 1011.5
20260906022900 30 161 6.4 17.7 0.00 0.00 0.00 57 1011.5
20260906022800 30 146 6.4 17.7 0.00 0.00 0.00 57 1011.5
20260906022700 30 148 6.4 14.5 0.00 0.00 0.00 57 1011.4
20260906022600 30 126 6.4 14.5 0.00 0.00 0.00 57 1011.4
20260906022500 30 148 6.4 14.5 0.00 0.00 0.00 57 1011.4
20260906022400 30 138 6.4 14.5 0.00 0.00 0.00 57 1011.3
20260906022300 31 143 6.4 14.5 0.00 0.00 0.00 57 1011.4
20260906022000 31 150 6.4 14.5 0.00 0.00 0.00 56 1011.3
20260906021900 31 141 8.0 14.5 0.00 0.00 0.00 56 1011.3
20260906021801 31 131 8.0 17.7 0.00 0.00 0.00 56 1011.3
20260906021700 31 146 8.0 17.7 0.00 0.00 0.00 56 1011.3
20260906021603 31 155 6.4 19.3 0.00 0.00 0.00 56 1009.5
20260906021600 31 155 8.0 19.3 0.00 0.00 0.00 56 1011.3
20260906021500 31 155 8.0 19.3 0.00 0.00 0.00 56 1011.3
20260906021401 31 138 9.7 19.3 0.00 0.00 0.00 56 1011.3
20260906021300 31 174 9.7 19.3 0.00 0.00 0.00 56 1011.2
20260906021159 31 165 8.0 19.3 0.00 0.00 0.00 56 1011.2
20260906021101 31 129 8.0 19.3 0.00 0.00 0.00 56 1011.2
20260906021000 31 164 9.7 19.3 0.00 0.00 0.00 56 1011.2
20260906020900 31 148 8.0 19.3 0.00 0.00 0.00 56 1011.2
20260906020600 31 157 9.7 19.3 0.00 0.00 0.00 56 1011.1
20260906020500 31 128 9.7 19.3 0.00 0.00 0.00 56 1011.2
20260906020359 31 162 9.7 19.3 0.00 0.00 0.00 56 1011.2
20260906020301 31 140 9.7 19.3 0.00 0.00 0.00 56 1011.2
20260906020200 31 134 8.0 19.3 0.00 0.00 0.00 56 1011.1
20260906020100 31 142 6.4 16.1 0.00 0.00 0.00 56 1009.3
20260906020002 31 157 6.4 16.1 0.00 0.00 0.00 56 1009.3
20260906015801 31 136 8.0 16.1 0.00 0.00 0.00 56 1011.1
20260906015700 31 142 8.0 16.1 0.00 0.00 0.00 56 1011.0
20260906015600 31 144 8.0 16.1 0.00 0.00 0.00 56 1011.0
20260906015500 31 154 8.0 14.5 0.00 0.00 0.00 56 1011.0
20260906015300 31 111 8.0 14.5 0.00 0.00 0.00 56 1010.9
20260906015201 31 126 6.4 16.1 0.00 0.00 0.00 55 1010.9
20260906015100 31 140 6.4 16.1 0.00 0.00 0.00 55 1010.8
20260906015000 31 121 8.0 16.1 0.00 0.00 0.00 55 1010.9
20260906014902 31 144 8.0 17.7 0.00 0.00 0.00 55 1010.8
20260906014800 31 163 8.0 17.7 0.00 0.00 0.00 54 1010.9
20260906014604 31 138 9.7 24.1 0.00 0.00 0.00 54 1008.9
20260906014601 31 138 9.7 24.1 0.00 0.00 0.00 54 1010.8
20260906014501 31 136 9.7 24.1 0.00 0.00 0.00 54 1010.8
20260906014300 31 128 9.7 24.1 0.00 0.00 0.00 54 1010.9
20260906014201 31 126 11.3 24.1 0.00 0.00 0.00 54 1010.9
20260906014000 31 127 11.3 24.1 0.00 0.00 0.00 54 1010.9
20260906013800 31 145 6.4 14.5 0.00 0.00 0.00 52 1010.8
20260906013500 31 122 0.0 3.2 0.00 0.00 0.00 52 1010.6
20260906013400 31 122 0.0 3.2 0.00 0.00 0.00 52 1010.5
20260906013200 32 122 0.0 1.6 0.00 0.00 0.00 51 1010.5
20260906013100 32 122 0.0 3.2 0.00 0.00 0.00 51 1010.6
20260906013000 32 122 0.0 3.2 0.00 0.00 0.00 51 1010.5
20260906012900 32 122 0.0 3.2 0.00 0.00 0.00 51 1010.6
20260906012801 32 122 0.0 3.2 0.00 0.00 0.00 51 1010.5
20260906012659 32 122 0.0 3.2 0.00 0.00 0.00 51 1010.5
20260906012601 32 122 0.0 3.2 0.00 0.00 0.00 51 1010.5
20260906012500 32 122 0.0 3.2 0.00 0.00 0.00 51 1010.5
20260906012400 32 122 0.0 3.2 0.00 0.00 0.00 51 1010.5
20260906012201 32 122 0.0 3.2 0.00 0.00 0.00 51 1010.5
20260906012000 32 122 0.0 3.2 0.00 0.00 0.00 50 1010.4
20260906011900 32 122 0.0 3.2 0.00 0.00 0.00 50 1010.4
20260906011801 32 122 0.0 3.2 0.00 0.00 0.00 50 1010.4
20260906011700 32 122 0.0 3.2 0.00 0.00 0.00 50 1010.4
20260906011601 32 122 0.0 3.2 0.00 0.00 0.00 50 1010.4
20260906011500 32 122 0.0 3.2 0.00 0.00 0.00 49 1010.4
20260906011400 32 122 0.0 3.2 0.00 0.00 0.00 49 1010.3
20260906011300 32 122 0.0 3.2 0.00 0.00 0.00 49 1010.4
20260906011200 32 122 0.0 3.2 0.00 0.00 0.00 49 1010.4
20260906011100 32 122 0.0 3.2 0.00 0.00 0.00 49 1010.3
20260906010801 32 122 0.0 3.2 0.00 0.00 0.00 49 1010.3
20260906010700 32 122 0.0 3.2 0.00 0.00 0.00 49 1010.3
20260906010400 33 122 0.0 0.0 0.00 0.00 0.00 48 1010.3
20260906010301 33 122 0.0 0.0 0.00 0.00 0.00 48 1010.3
20260906010140 33 122 0.0 0.0 0.00 0.00 0.00 47 1008.4
20260906010002 33 122 0.0 0.0 0.00 0.00 0.00 47 1010.2
20260906005900 33 122 0.0 0.0 0.00 0.00 0.00 47 1010.2
20260906005800 33 122 0.0 0.0 0.00 0.00 0.00 47 1010.2
20260906005701 33 122 0.0 0.0 0.00 0.00 0.00 47 1010.2
20260906005601 33 122 0.0 0.0 0.00 0.00 0.00 47 1010.2
20260906005459 33 122 0.0 0.0 0.00 0.00 0.00 47 1010.2
20260906005300 33 122 0.0 1.6 0.00 0.00 0.00 47 1010.2
20260906005201 33 122 0.0 1.6 0.00 0.00 0.00 47 1010.2
20260906005100 33 122 0.0 3.2 0.00 0.00 0.00 47 1010.1
20260906004800 33 122 0.0 3.2 0.00 0.00 0.00 46 1010.1
20260906004700 33 122 0.0 3.2 0.00 0.00 0.00 46 1010.1
20260906004616 33 122 0.0 3.2 0.00 0.00 0.00 46 1008.3
20260906004500 33 122 0.0 3.2 0.00 0.00 0.00 46 1010.1
20260906004400 33 122 0.0 3.2 0.00 0.00 0.00 46 1010.1
20260906004300 33 122 0.0 3.2 0.00 0.00 0.00 46 1010.1
20260906004200 33 122 0.0 3.2 0.00 0.00 0.00 46 1010.0
20260906004101 33 122 0.0 3.2 0.00 0.00 0.00 46 1010.1
20260906004000 33 122 0.0 3.2 0.00 0.00 0.00 46 1010.1
20260906003900 34 122 0.0 3.2 0.00 0.00 0.00 45 1010.1
20260906003800 34 122 0.0 3.2 0.00 0.00 0.00 45 1010.0
20260906003701 34 122 0.0 3.2 0.00 0.00 0.00 45 1010.1
20260906003559 34 122 0.0 3.2 0.00 0.00 0.00 45 1010.1
20260906003500 34 122 0.0 3.2 0.00 0.00 0.00 45 1010.1
20260906003400 34 122 0.0 3.2 0.00 0.00 0.00 45 1010.1
20260906003300 34 122 0.0 3.2 0.00 0.00 0.00 45 1010.1
20260906003201 34 122 0.0 3.2 0.00 0.00 0.00 45 1010.1
20260906003101 34 122 0.0 3.2 0.00 0.00 0.00 44 1008.3
20260906003002 34 122 0.0 3.2 0.00 0.00 0.00 44 1008.3
20260906002901 34 122 0.0 3.2 0.00 0.00 0.00 44 1010.1
20260906002801 35 122 0.0 3.2 0.00 0.00 0.00 44 1010.1
20260906002700 35 122 1.6 3.2 0.00 0.00 0.00 44 1010.1
20260906002600 35 122 1.6 3.2 0.00 0.00 0.00 44 1010.1
20260906002500 35 122 0.0 3.2 0.00 0.00 0.00 44 1010.2
20260906002400 35 122 0.0 3.2 0.00 0.00 0.00 44 1010.1
20260906002300 35 121 0.0 1.6 0.00 0.00 0.00 44 1010.2
20260906002202 35 117 0.0 1.6 0.00 0.00 0.00 44 1010.2
20260906002100 35 117 0.0 3.2 0.00 0.00 0.00 44 1010.1
20260906002000 35 117 0.0 3.2 0.00 0.00 0.00 44 1010.1
20260906001901 35 117 0.0 3.2 0.00 0.00 0.00 44 1010.1
20260906001700 35 117 0.0 3.2 0.00 0.00 0.00 43 1010.1
20260906001605 35 117 0.0 3.2 0.00 0.00 0.00 43 1008.2
20260906001600 35 117 0.0 3.2 0.00 0.00 0.00 43 1010.0
20260906001501 35 117 1.6 3.2 0.00 0.00 0.00 43 1010.1
20260906001301 35 117 1.6 4.8 0.00 0.00 0.00 43 1010.0
20260906001101 35 117 1.6 4.8 0.00 0.00 0.00 43 1010.1
20260906001000 35 117 1.6 4.8 0.00 0.00 0.00 42 1010.1
20260906000900 35 117 1.6 4.8 0.00 0.00 0.00 42 1010.0
20260906000800 35 114 1.6 4.8 0.00 0.00 0.00 43 1010.0
20260906000701 35 114 1.6 4.8 0.00 0.00 0.00 42 1010.0
20260906000459 36 114 1.6 4.8 0.00 0.00 0.00 42 1010.0
20260906000400 36 114 3.2 4.8 0.00 0.00 0.00 42 1010.0
20260906000300 36 111 3.2 9.7 0.00 0.00 0.00 42 1010.0
20260906000200 36 107 3.2 9.7 0.00 0.00 0.00 42 1010.0
20260906000100 36 109 0.0 9.7 0.00 0.00 0.00 43 1008.1
20260905235859 36 94 1.6 12.9 0.00 0.00 0.00 43 1010.0
20260905235659 36 107 4.8 12.9 0.00 0.00 0.00 42 1010.0
20260905235559 36 109 4.8 12.9 0.00 0.00 0.00 42 1009.9
20260905235459 36 114 4.8 12.9 0.00 0.00 0.00 42 1010.0
20260905235259 36 126 6.4 12.9 0.00 0.00 0.00 41 1010.0
20260905235159 36 120 6.4 12.9 0.00 0.00 0.00 41 1009.9
20260905235059 36 117 6.4 12.9 0.00 0.00 0.00 41 1009.9
20260905235000 36 118 4.8 12.9 0.00 0.00 0.00 41 1009.9
20260905234759 36 109 6.4 12.9 0.00 0.00 0.00 41 1009.9
20260905234659 36 132 8.0 14.5 0.00 0.00 0.00 40 1009.9
20260905234600 36 120 6.4 14.5 0.00 0.00 0.00 41 1008.1
20260905234559 36 120 6.4 14.5 0.00 0.00 0.00 41 1009.9
20260905234300 36 118 4.8 14.5 0.00 0.00 0.00 40 1009.8
20260905234159 36 113 6.4 14.5 0.00 0.00 0.00 41 1009.8
20260905234059 36 105 6.4 14.5 0.00 0.00 0.00 40 1009.8
20260905233959 36 104 6.4 14.5 0.00 0.00 0.00 40 1009.8
20260905233859 36 120 4.8 11.3 0.00 0.00 0.00 40 1009.8
20260905233759 36 144 3.2 8.0 0.00 0.00 0.00 40 1009.8
20260905233659 36 123 3.2 8.0 0.00 0.00 0.00 40 1009.8
20260905233459 36 109 3.2 8.0 0.00 0.00 0.00 40 1009.8
20260905233359 36 103 3.2 8.0 0.00 0.00 0.00 41 1009.8
20260905233159 37 130 3.2 8.0 0.00 0.00 0.00 40 1009.8
20260905233100 37 123 3.2 8.0 0.00 0.00 0.00 40 1007.9
20260905232959 37 131 3.2 8.0 0.00 0.00 0.00 40 1009.8
20260905232859 37 134 3.2 8.0 0.00 0.00 0.00 40 1009.8
20260905232759 37 93 3.2 6.4 0.00 0.00 0.00 41 1009.8
20260905232659 37 105 1.6 6.4 0.00 0.00 0.00 41 1009.8
20260905232500 37 94 1.6 4.8 0.00 0.00 0.00 41 1009.8
20260905232400 37 111 1.6 9.7 0.00 0.00 0.00 39 1009.8
20260905232259 37 109 0.0 9.7 0.00 0.00 0.00 40 1009.8
20260905232200 36 109 1.6 9.7 0.00 0.00 0.00 40 1009.8
20260905231959 36 108 3.2 9.7 0.00 0.00 0.00 40 1009.8
20260905231859 36 109 3.2 9.7 0.00 0.00 0.00 40 1009.8
20260905231801 36 128 3.2 11.3 0.00 0.00 0.00 40 1009.8
20260905231700 36 127 3.2 11.3 0.00 0.00 0.00 39 1009.9
20260905231602 37 133 4.8 11.3 0.00 0.00 0.00 39 1008.0
20260905231558 37 133 4.8 11.3 0.00 0.00 0.00 39 1009.8
20260905231459 37 128 4.8 14.5 0.00 0.00 0.00 39 1009.9
20260905231359 37 129 4.8 14.5 0.00 0.00 0.00 40 1009.9
20260905231259 37 115 4.8 14.5 0.00 0.00 0.00 40 1009.8
20260905231159 37 113 4.8 14.5 0.00 0.00 0.00 40 1009.9
20260905231059 37 140 6.4 14.5 0.00 0.00 0.00 39 1009.9
20260905230959 37 123 8.0 14.5 0.00 0.00 0.00 39 1009.9
20260905230859 37 138 8.0 14.5 0.00 0.00 0.00 39 1009.8
20260905230759 37 123 8.0 14.5 0.00 0.00 0.00 39 1009.9
20260905230559 37 140 8.0 14.5 0.00 0.00 0.00 39 1009.9
20260905230459 37 117 8.0 14.5 0.00 0.00 0.00 39 1009.9
20260905230359 37 133 6.4 12.9 0.00 0.00 0.00 38 1009.9
20260905230159 37 130 4.8 12.9 0.00 0.00 0.00 38 1009.9
20260905230059 37 113 4.8 12.9 0.00 0.00 0.00 38 1009.9
20260905225859 37 115 6.4 14.5 0.00 0.00 0.00 38 1009.9
20260905225800 37 134 4.8 14.5 0.00 0.00 0.00 38 1009.9
20260905225559 38 140 4.8 14.5 0.00 0.00 0.00 38 1009.9
20260905225459 38 148 4.8 14.5 0.00 0.00 0.00 37 1009.9
20260905225359 38 130 6.4 14.5 0.00 0.00 0.00 37 1009.9
20260905225259 38 148 8.0 14.5 0.00 0.00 0.00 38 1009.9
20260905225159 38 69 8.0 16.1 0.00 0.00 0.00 37 1009.9
20260905225059 38 94 8.0 16.1 0.00 0.00 0.00 37 1009.8
20260905225000 38 100 6.4 16.1 0.00 0.00 0.00 38 1009.8
20260905224859 38 103 3.2 16.1 0.00 0.00 0.00 38 1009.9
20260905224559 38 93 1.6 9.7 0.00 0.00 0.00 38 1008.0
20260905224500 38 93 1.6 9.7 0.00 0.00 0.00 38 1009.9
20260905224403 38 93 1.6 9.7 0.00 0.00 0.00 38 1009.9
20260905224304 38 129 1.6 8.0 0.00 0.00 0.00 38 1009.8
20260905224203 38 83 0.0 8.0 0.00 0.00 0.00 38 1009.8
20260905224104 38 82 0.0 8.0 0.00 0.00 0.00 37 1009.8
20260905224003 38 82 1.6 11.3 0.00 0.00 0.00 37 1009.8
20260905223904 38 83 1.6 11.3 0.00 0.00 0.00 38 1009.8
20260905223803 37 108 3.2 11.3 0.00 0.00 0.00 39 1009.8
20260905223702 37 82 3.2 11.3 0.00 0.00 0.00 39 1009.8
20260905223604 37 98 3.2 14.5 0.00 0.00 0.00 38 1009.8
20260905223502 37 95 3.2 14.5 0.00 0.00 0.00 38 1009.8
20260905223403 37 113 4.8 14.5 0.00 0.00 0.00 38 1009.8
20260905223303 37 106 4.8 14.5 0.00 0.00 0.00 39 1009.9
20260905223203 37 107 4.8 14.5 0.00 0.00 0.00 38 1009.8
20260905223103 37 99 4.8 14.5 0.00 0.00 0.00 38 1009.8
20260905223006 37 158 4.8 16.1 0.00 0.00 0.00 39 1007.9
20260905223004 37 158 6.4 16.1 0.00 0.00 0.00 39 1009.8
20260905222903 37 119 6.4 16.1 0.00 0.00 0.00 38 1009.8
20260905222804 37 132 6.4 19.3 0.00 0.00 0.00 38 1009.8
20260905222704 37 105 8.0 19.3 0.00 0.00 0.00 38 1009.7
20260905222602 37 126 8.0 19.3 0.00 0.00 0.00 39 1009.7
20260905222503 37 97 8.0 19.3 0.00 0.00 0.00 39 1009.8